M I D A S
Marine Information and Data Acquisition System
Tripno 946 of the Zeeleeuw from 2005-07-14 07:46:47 to 2005-07-14 12:55:17
Back to CruiseResearch ActivitiesStationsMapUnderway DataData graphs

EquipmentUnitsComment
TimeDGPSUTC
LatitudeDGPSDM.mWGS84
LongitudeDGPSDM.mWGS84
TemperatureSBE03/SBE38deg celciusITS90
ConductivitySBE21S/mITS90
SalinitySBE21 Practical Salinity Units
ChlorophylAChelsea fluorimeterg/lCalibrated in Aceton
Missing or incorrect values are displayed as -999
Sea surface data collected by the RV Zeeleeuw from 2005-07-14 07:48:16 to 2005-07-14 13:05:42
                                                                                    Next 1000 lines
Time Latitude Longitude Temperature Conductivity Salinity ChlorophylA
2005-07-14 07:48:28 51°13.598 2°56.105 21.9193 0.01848 0.093221 -0.477864
2005-07-14 07:48:32 51°13.599 2°56.103 21.9854 0.01848 0.093222 -0.511574
2005-07-14 07:48:37 51°13.599 2°56.1 22.0109 0.01848 0.093222 -0.511574
2005-07-14 07:48:42 51°13.6 2°56.096 21.9951 0.01848 0.093223 -0.511574
2005-07-14 07:48:47 51°13.601 2°56.092 21.9947 0.018583 0.093725 -0.477864
2005-07-14 07:48:53 51°13.603 2°56.087 21.9927 0.018583 0.093725 -0.477864
2005-07-14 07:48:58 51°13.605 2°56.082 21.9908 0.01848 0.093224 -0.477864
2005-07-14 07:49:02 51°13.606 2°56.078 21.9937 0.01848 0.093226 -0.511574
2005-07-14 07:49:08 51°13.608 2°56.071 21.9887 0.018583 0.093727 -0.511574
2005-07-14 07:49:12 51°13.609 2°56.066 21.9876 0.01848 0.093226 -0.511574
2005-07-14 07:49:18 51°13.611 2°56.06 21.9905 0.01848 0.093226 -0.511574
2005-07-14 07:49:23 51°13.613 2°56.053 21.9915 0.01848 0.093226 -0.511574
2005-07-14 07:49:28 51°13.615 2°56.048 21.9873 0.01848 0.093228 -0.511574
2005-07-14 07:49:33 51°13.617 2°56.04 21.9887 0.01848 0.09323 -0.511574
2005-07-14 07:49:38 51°13.619 2°56.034 21.9912 0.01848 0.09323 -0.511574
2005-07-14 07:49:42 51°13.62 2°56.027 21.9933 0.01848 0.093231 -0.511574
2005-07-14 07:49:47 51°13.622 2°56.021 21.9933 0.01848 0.093231 -0.511574
2005-07-14 07:49:52 51°13.624 2°56.013 21.9953 0.01848 0.093231 -0.511574
2005-07-14 07:49:58 51°13.626 2°56.005 21.9971 0.01848 0.093231 -0.511574
2005-07-14 07:50:02 51°13.628 2°55.998 21.9965 0.01848 0.093232 -0.511574
2005-07-14 07:50:08 51°13.631 2°55.99 22.0019 0.01848 0.093233 -0.511574
2005-07-14 07:50:12 51°13.633 2°55.982 21.9958 0.01848 0.093233 -0.545283
2005-07-14 07:50:18 51°13.636 2°55.974 21.9979 0.018583 0.093735 -0.511574
2005-07-14 07:50:22 51°13.639 2°55.966 22.0105 0.018583 0.093735 -0.511574
2005-07-14 07:50:28 51°13.642 2°55.958 22.0067 0.01848 0.093236 -0.477864
2005-07-14 07:50:32 51°13.645 2°55.95 22.0168 0.01848 0.093237 -0.511574
2005-07-14 07:50:38 51°13.648 2°55.941 22.0099 0.01848 0.093237 -0.477864
2005-07-14 07:50:43 51°13.651 2°55.932 22.0102 0.01848 0.093237 -0.511574
2005-07-14 07:50:47 51°13.653 2°55.926 22.0097 0.01848 0.093238 -0.477864
2005-07-14 07:50:52 51°13.657 2°55.917 22.0075 0.01848 0.093238 -0.477864
2005-07-14 07:50:58 51°13.66 2°55.909 22.0088 0.01848 0.093238 -0.477864
2005-07-14 07:51:02 51°13.663 2°55.901 22.01 0.01848 0.093239 -0.511574
2005-07-14 07:51:08 51°13.666 2°55.892 22.0098 0.01848 0.093239 -0.511574
2005-07-14 07:51:12 51°13.669 2°55.884 22.0068 0.01848 0.09324 -0.511574
2005-07-14 07:51:18 51°13.672 2°55.877 22.0067 0.01848 0.09324 -0.511574
2005-07-14 07:51:23 51°13.675 2°55.868 22.0072 0.01848 0.09324 -0.511574
2005-07-14 07:51:28 51°13.677 2°55.86 22.0074 0.01848 0.093241 -0.511574
2005-07-14 07:51:32 51°13.68 2°55.854 22.0074 0.01848 0.093243 -0.511574
2005-07-14 07:51:38 51°13.682 2°55.845 22.0056 0.01848 0.093243 -0.511574
2005-07-14 07:51:43 51°13.684 2°55.838 22.0044 0.01848 0.093244 -0.511574
2005-07-14 07:51:48 51°13.686 2°55.83 22.0054 0.01848 0.093244 -0.511574
2005-07-14 07:51:52 51°13.688 2°55.823 22.0063 0.01848 0.093244 -0.511574
2005-07-14 07:51:56 51°13.689 2°55.817 22.0077 0.01848 0.093246 -0.511574
2005-07-14 07:52:03 51°13.692 2°55.806 22.0079 0.01848 0.093246 -0.477864
2005-07-14 07:52:08 51°13.693 2°55.799 22.012 0.01848 0.093247 -0.477864
2005-07-14 07:52:13 51°13.695 2°55.791 22.0088 0.01848 0.093247 -0.511574
2005-07-14 07:52:18 51°13.696 2°55.784 22.012 0.01848 0.093247 -0.477864
2005-07-14 07:52:23 51°13.697 2°55.777 22.0208 0.01848 0.093247 -0.477864
2005-07-14 07:52:28 51°13.698 2°55.77 22.0069 0.01848 0.093248 -0.511574
2005-07-14 07:52:32 51°13.698 2°55.765 22.0111 0.01848 0.093248 -0.511574
2005-07-14 07:52:38 51°13.699 2°55.76 22.0172 0.01848 0.093249 -0.545283
2005-07-14 07:52:42 51°13.7 2°55.757 22.0265 0.01848 0.093249 -0.511574
2005-07-14 07:52:48 51°13.7 2°55.754 22.0431 0.01848 0.093251 -0.511574
2005-07-14 07:52:52 51°13.701 2°55.754 22.0372 0.01848 0.093251 -0.511574
2005-07-14 07:52:56 51°13.701 2°55.753 22.035 0.01848 0.093251 -0.511574
2005-07-14 07:53:02 51°13.702 2°55.754 22.0164 0.01848 0.093252 -0.511574
2005-07-14 07:53:07 51°13.703 2°55.755 21.9443 0.01848 0.093253 -0.511574
2005-07-14 07:53:12 51°13.703 2°55.756 21.9998 0.01848 0.093253 -0.545283
2005-07-14 07:53:16 51°13.704 2°55.756 21.9878 0.01848 0.093253 -0.511574
2005-07-14 07:53:22 51°13.704 2°55.755 21.9883 0.01848 0.093253 -0.511574
2005-07-14 07:53:27 51°13.704 2°55.754 22.0006 0.01848 0.093254 -0.477864
2005-07-14 07:53:32 51°13.704 2°55.753 21.9878 0.01848 0.093254 -0.477864
2005-07-14 07:53:36 51°13.703 2°55.752 22.0033 0.01848 0.093254 -0.511574
2005-07-14 07:53:42 51°13.702 2°55.749 22.0059 0.01848 0.093256 -0.477864
2005-07-14 07:53:47 51°13.701 2°55.747 22.0125 0.01848 0.093256 -0.477864
2005-07-14 07:53:52 51°13.701 2°55.745 22.0247 0.01848 0.093256 -0.477864
2005-07-14 07:53:57 51°13.7 2°55.743 22.0297 0.01848 0.093257 -0.511574
2005-07-14 07:54:02 51°13.7 2°55.743 22.0433 0.01848 0.093257 -0.545283
2005-07-14 07:54:07 51°13.701 2°55.743 22.0461 0.01848 0.093259 -0.511574
2005-07-14 07:54:12 51°13.703 2°55.744 22.0532 0.01848 0.093259 -0.511574
2005-07-14 07:54:18 51°13.705 2°55.745 22.0548 0.01848 0.093259 -0.545283
2005-07-14 07:54:22 51°13.708 2°55.745 22.058 0.01848 0.093259 -0.545283
2005-07-14 07:54:27 51°13.711 2°55.746 22.0598 0.01848 0.09326 -0.511574
2005-07-14 07:54:31 51°13.715 2°55.746 22.0634 0.01848 0.093261 -0.511574
2005-07-14 07:54:36 51°13.719 2°55.744 22.0644 0.01848 0.093261 -0.511574
2005-07-14 07:54:42 51°13.724 2°55.742 22.0638 0.01848 0.093262 -0.477864
2005-07-14 07:54:47 51°13.729 2°55.739 22.0328 0.01848 0.093263 -0.511574
2005-07-14 07:54:52 51°13.735 2°55.734 22.0088 0.01848 0.093263 -0.511574
2005-07-14 07:54:57 51°13.739 2°55.731 22.0193 0.01848 0.093263 -0.511574
2005-07-14 07:55:02 51°13.745 2°55.725 22.0115 0.01848 0.093263 -0.511574
2005-07-14 07:55:07 51°13.75 2°55.72 22.004 0.01848 0.093265 -0.511574
2005-07-14 07:55:12 51°13.755 2°55.714 21.99 0.01848 0.093265 -0.545283
2005-07-14 07:55:16 51°13.761 2°55.707 21.9753 0.01848 0.093265 -0.511574
2005-07-14 07:55:22 51°13.77 2°55.698 21.9592 0.01848 0.093265 -0.511574
2005-07-14 07:55:27 51°13.776 2°55.69 21.9527 0.01848 0.093265 -0.511574
2005-07-14 07:55:32 51°13.784 2°55.681 21.9444 0.01848 0.093267 -0.545283
2005-07-14 07:55:37 51°13.791 2°55.673 21.925 0.01848 0.093268 -0.545283
2005-07-14 07:55:42 51°13.799 2°55.664 21.9155 0.01848 0.093267 -0.511574
2005-07-14 07:55:47 51°13.808 2°55.655 21.9068 0.01848 0.093267 -0.511574
2005-07-14 07:55:52 51°13.817 2°55.646 21.8991 0.01848 0.093267 -0.511574
2005-07-14 07:55:56 51°13.824 2°55.639 21.8979 0.01848 0.093269 -0.477864
2005-07-14 07:56:02 51°13.836 2°55.629 21.9083 0.01848 0.093268 -0.511574
2005-07-14 07:56:07 51°13.844 2°55.621 21.918 0.01848 0.093269 -0.511574
2005-07-14 07:56:12 51°13.855 2°55.612 21.9215 0.01848 0.093271 -0.511574
2005-07-14 07:56:17 51°13.864 2°55.604 21.9253 0.01848 0.093271 -0.511574
2005-07-14 07:56:22 51°13.875 2°55.595 21.925 0.01848 0.093271 -0.511574
2005-07-14 07:56:28 51°13.885 2°55.587 21.9291 0.01848 0.093271 -0.545283
2005-07-14 07:56:32 51°13.894 2°55.58 21.9347 0.01848 0.093272 -0.511574
2005-07-14 07:56:38 51°13.906 2°55.57 21.9372 0.01848 0.093272 -0.511574
2005-07-14 07:56:42 51°13.916 2°55.562 21.9347 0.01848 0.093274 -0.511574
2005-07-14 07:56:47 51°13.926 2°55.556 21.9594 0.01848 0.093274 -0.545283
2005-07-14 07:56:52 51°13.936 2°55.549 21.9487 0.01848 0.093274 -0.545283
2005-07-14 07:56:57 51°13.948 2°55.541 21.9665 0.01848 0.093275 -0.545283
2005-07-14 07:57:02 51°13.959 2°55.534 21.973 0.01848 0.093275 -0.511574
2005-07-14 07:57:07 51°13.969 2°55.526 21.969 0.01848 0.093276 -0.477864
2005-07-14 07:57:12 51°13.979 2°55.52 21.9752 0.01848 0.093277 -0.477864
2005-07-14 07:57:16 51°13.991 2°55.513 21.9803 0.01848 0.093277 -0.477864
2005-07-14 07:57:22 51°14.004 2°55.505 21.9764 0.01848 0.093277 -0.477864
2005-07-14 07:57:27 51°14.014 2°55.498 21.9772 0.01848 0.093278 -0.477864
2005-07-14 07:57:32 51°14.024 2°55.492 21.98 0.01848 0.093277 -0.545283
2005-07-14 07:57:36 51°14.035 2°55.485 21.997 0.01848 0.093278 -0.511574
2005-07-14 07:57:42 51°14.048 2°55.476 21.9966 0.01848 0.093279 -0.511574
2005-07-14 07:57:48 51°14.059 2°55.469 21.9924 0.01848 0.093279 -0.511574
2005-07-14 07:57:51 51°14.067 2°55.464 21.994 0.01848 0.093279 -0.511574
2005-07-14 07:57:58 51°14.082 2°55.454 21.9917 0.01848 0.09328 -0.545283
2005-07-14 07:58:00 51°14.088 2°55.449 21.9849 0.01848 0.09328 -0.511574
2005-07-14 07:58:07 51°14.103 2°55.44 22.0077 0.01848 0.093282 -0.511574
2005-07-14 07:58:12 51°14.115 2°55.432 22.0059 0.01848 0.093282 -0.511574
2005-07-14 07:58:16 51°14.124 2°55.425 22.0187 0.01848 0.093283 -0.511574
2005-07-14 07:58:22 51°14.137 2°55.415 22.0261 0.01848 0.093283 -0.511574
2005-07-14 07:58:27 51°14.146 2°55.407 22.0238 0.01848 0.093283 -0.511574
2005-07-14 07:58:32 51°14.158 2°55.397 22.0191 0.01848 0.093283 -0.545283
2005-07-14 07:58:38 51°14.168 2°55.387 22.0268 0.01848 0.093285 -0.511574
2005-07-14 07:58:42 51°14.177 2°55.378 22.0252 0.01848 0.093285 -0.511574
2005-07-14 07:58:47 51°14.187 2°55.367 22.0226 0.01848 0.093284 -0.511574
2005-07-14 07:58:52 51°14.198 2°55.355 22.0184 0.01848 0.093284 -0.511574
2005-07-14 07:58:56 51°14.206 2°55.346 22.0157 0.01848 0.093286 -0.511574
2005-07-14 07:59:02 51°14.217 2°55.332 22.0124 0.01848 0.093286 -0.511574
2005-07-14 07:59:08 51°14.227 2°55.319 22.0158 0.01848 0.093287 -0.511574
2005-07-14 07:59:11 51°14.233 2°55.311 22.015 0.01848 0.093288 -0.511574
2005-07-14 07:59:16 51°14.244 2°55.296 22.0227 0.01848 0.093288 -0.511574
2005-07-14 07:59:22 51°14.254 2°55.28 22.041 0.01848 0.093288 -0.511574
2005-07-14 07:59:27 51°14.262 2°55.267 22.0276 0.01848 0.093287 -0.511574
2005-07-14 07:59:32 51°14.271 2°55.253 22.0314 0.01848 0.09329 -0.545283
2005-07-14 07:59:37 51°14.28 2°55.237 22.0192 0.01848 0.09329 -0.511574
2005-07-14 07:59:42 51°14.289 2°55.219 21.9946 0.01848 0.09329 -0.511574
2005-07-14 07:59:47 51°14.297 2°55.203 22.0077 0.01848 0.093291 -0.511574
2005-07-14 07:59:52 51°14.306 2°55.186 21.9964 0.01848 0.093291 -0.511574
2005-07-14 07:59:56 51°14.313 2°55.169 21.9683 0.01848 0.093291 -0.545283
2005-07-14 08:00:02 51°14.322 2°55.148 21.9993 0.01848 0.093291 -0.545283
2005-07-14 08:00:07 51°14.331 2°55.129 21.9892 0.01848 0.093293 -0.477864
2005-07-14 08:00:11 51°14.337 2°55.113 21.9937 0.01848 0.093292 -0.477864
2005-07-14 08:00:16 51°14.346 2°55.092 22.0032 0.01848 0.093293 -0.511574
2005-07-14 08:00:22 51°14.355 2°55.069 22.0117 0.01848 0.093293 -0.511574
2005-07-14 08:00:27 51°14.363 2°55.048 21.9869 0.01848 0.093293 -0.511574
2005-07-14 08:00:32 51°14.371 2°55.025 22.0092 0.01848 0.093294 -0.545283
2005-07-14 08:00:36 51°14.377 2°55.008 22.0118 0.01848 0.093293 -0.511574
2005-07-14 08:00:42 51°14.385 2°54.981 22.0265 0.01848 0.093294 -0.477864
2005-07-14 08:00:47 51°14.392 2°54.961 22.0456 0.01848 0.093294 -0.477864
2005-07-14 08:00:51 51°14.397 2°54.942 22.0377 0.01848 0.093294 -0.477864
2005-07-14 08:00:56 51°14.403 2°54.916 22.0209 0.01848 0.093295 -0.545283
2005-07-14 08:01:02 51°14.408 2°54.888 22.0146 0.01848 0.093296 -0.511574
2005-07-14 08:01:08 51°14.413 2°54.861 21.9407 0.01848 0.093296 -0.511574
2005-07-14 08:01:12 51°14.417 2°54.835 21.9406 0.01848 0.093296 -0.511574
2005-07-14 08:01:18 51°14.42 2°54.81 21.9437 0.01848 0.093298 -0.511574
2005-07-14 08:01:22 51°14.424 2°54.784 22.0222 0.01848 0.093298 -0.511574
2005-07-14 08:01:28 51°14.427 2°54.757 22.0175 0.01848 0.093298 -0.511574
2005-07-14 08:01:31 51°14.428 2°54.739 22.032 0.01848 0.093298 -0.511574
2005-07-14 08:01:38 51°14.429 2°54.704 21.9884 0.01848 0.0933 -0.511574
2005-07-14 08:01:42 51°14.429 2°54.678 21.9615 0.01848 0.0933 -0.511574
2005-07-14 08:01:47 51°14.428 2°54.654 21.9215 0.01848 0.093301 -0.477864
2005-07-14 08:01:51 51°14.428 2°54.633 21.9587 0.01848 0.093301 -0.477864
2005-07-14 08:01:58 51°14.427 2°54.598 21.942 0.01848 0.093301 -0.511574
2005-07-14 08:02:02 51°14.425 2°54.574 21.9474 0.01848 0.093301 -0.545283
2005-07-14 08:02:07 51°14.424 2°54.547 21.945 0.01848 0.093302 -0.511574
2005-07-14 08:02:12 51°14.423 2°54.522 21.9679 0.01848 0.093302 -0.477864
2005-07-14 08:02:16 51°14.421 2°54.496 21.9991 0.01848 0.093301 -0.511574
2005-07-14 08:02:22 51°14.419 2°54.466 22.0046 0.01848 0.093301 -0.511574
2005-07-14 08:02:28 51°14.416 2°54.437 21.9968 0.01848 0.093305 -0.511574
2005-07-14 08:02:32 51°14.413 2°54.41 21.9698 0.01848 0.093303 -0.511574
2005-07-14 08:02:36 51°14.41 2°54.389 21.9693 0.01848 0.093305 -0.511574
2005-07-14 08:02:42 51°14.406 2°54.36 22.0049 0.01848 0.093305 -0.511574
2005-07-14 08:02:47 51°14.402 2°54.333 21.9983 0.01848 0.093306 -0.511574
2005-07-14 08:02:52 51°14.397 2°54.31 21.9749 0.01848 0.093306 -0.511574
2005-07-14 08:02:57 51°14.391 2°54.282 21.9992 0.01848 0.093306 -0.545283
2005-07-14 08:03:02 51°14.386 2°54.256 21.9758 0.01848 0.093306 -0.477864
2005-07-14 08:03:08 51°14.379 2°54.228 21.9846 0.01848 0.093307 -0.511574
2005-07-14 08:03:12 51°14.374 2°54.206 21.9416 0.01848 0.093307 -0.511574
2005-07-14 08:03:17 51°14.368 2°54.181 21.9454 0.01848 0.093308 -0.511574
2005-07-14 08:03:22 51°14.361 2°54.154 21.9721 0.01848 0.093308 -0.511574
2005-07-14 08:03:28 51°14.355 2°54.129 22.0014 0.01848 0.093309 -0.511574
2005-07-14 08:03:32 51°14.348 2°54.105 22.0117 0.01848 0.093309 -0.511574
2005-07-14 08:03:37 51°14.342 2°54.084 21.967 0.01848 0.093309 -0.511574
2005-07-14 08:03:42 51°14.334 2°54.058 22.006 0.01848 0.09331 -0.511574
2005-07-14 08:03:47 51°14.327 2°54.037 21.9514 0.01848 0.093311 -0.511574
2005-07-14 08:03:51 51°14.321 2°54.018 21.9752 0.01848 0.093311 -0.511574
2005-07-14 08:03:56 51°14.313 2°53.992 21.9829 0.01848 0.09331 -0.511574
2005-07-14 08:04:02 51°14.304 2°53.967 21.98 0.01848 0.093311 -0.545283
2005-07-14 08:04:07 51°14.297 2°53.943 21.9315 0.01848 0.093313 -0.511574
2005-07-14 08:04:12 51°14.288 2°53.918 21.9903 0.01848 0.093313 -0.545283
2005-07-14 08:04:16 51°14.282 2°53.899 21.9471 0.01848 0.093313 -0.511574
2005-07-14 08:04:22 51°14.273 2°53.871 22.0027 0.01848 0.093313 -0.511574
2005-07-14 08:04:28 51°14.265 2°53.847 21.9613 0.01848 0.093313 -0.545283
2005-07-14 08:04:32 51°14.258 2°53.824 21.9847 0.01848 0.093314 -0.511574
2005-07-14 08:04:37 51°14.251 2°53.803 21.9702 0.01848 0.093315 -0.477864
2005-07-14 08:04:42 51°14.243 2°53.78 21.977 0.01848 0.093315 -0.511574
2005-07-14 08:04:48 51°14.235 2°53.754 21.9878 0.01848 0.093315 -0.511574
2005-07-14 08:04:52 51°14.228 2°53.733 21.9736 0.01848 0.093315 -0.511574
2005-07-14 08:04:57 51°14.22 2°53.709 21.9934 0.01848 0.093316 -0.511574
2005-07-14 08:05:02 51°14.213 2°53.688 21.9687 0.01848 0.093317 -0.477864
2005-07-14 08:05:07 51°14.205 2°53.662 22.0023 0.01848 0.093318 -0.477864
2005-07-14 08:05:12 51°14.197 2°53.637 21.9889 0.01848 0.093318 -0.545283
2005-07-14 08:05:16 51°14.19 2°53.618 22.0099 0.01848 0.093319 -0.511574
2005-07-14 08:05:22 51°14.181 2°53.591 22.0011 0.01848 0.093319 -0.511574
2005-07-14 08:05:28 51°14.172 2°53.567 21.993 0.01848 0.093321 -0.511574
2005-07-14 08:05:32 51°14.165 2°53.547 21.9955 0.01848 0.093321 -0.511574
2005-07-14 08:05:37 51°14.156 2°53.523 21.9629 0.01848 0.093322 -0.477864
2005-07-14 08:05:42 51°14.147 2°53.498 21.9742 0.01848 0.093322 -0.511574
2005-07-14 08:05:48 51°14.138 2°53.473 21.9744 0.01848 0.093322 -0.511574
2005-07-14 08:05:52 51°14.13 2°53.451 22.0039 0.01848 0.093322 -0.511574
2005-07-14 08:05:57 51°14.121 2°53.427 21.9697 0.01848 0.093322 -0.477864
2005-07-14 08:06:02 51°14.111 2°53.4 21.9955 0.01848 0.093323 -0.477864
2005-07-14 08:06:07 51°14.103 2°53.377 21.9979 0.01848 0.093323 -0.511574
2005-07-14 08:06:12 51°14.095 2°53.354 21.9961 0.01848 0.093324 -0.511574
2005-07-14 08:06:16 51°14.086 2°53.329 22.0043 0.01848 0.093325 -0.511574
2005-07-14 08:06:22 51°14.076 2°53.302 22.0097 0.01848 0.093325 -0.511574
2005-07-14 08:06:27 51°14.067 2°53.276 21.946 0.01848 0.093326 -0.511574
2005-07-14 08:06:32 51°14.057 2°53.249 22.0125 0.01848 0.093326 -0.511574
2005-07-14 08:06:37 51°14.049 2°53.226 21.9704 0.01848 0.093328 -0.511574
2005-07-14 08:06:42 51°14.039 2°53.198 21.9932 0.01848 0.093328 -0.511574
2005-07-14 08:06:48 51°14.03 2°53.171 22.0007 0.01848 0.093329 -0.511574
2005-07-14 08:06:51 51°14.024 2°53.154 22.0105 0.01848 0.093329 -0.511574
2005-07-14 08:06:56 51°14.014 2°53.126 21.9882 0.01848 0.093329 -0.511574
2005-07-14 08:07:02 51°14.003 2°53.095 22.014 0.01848 0.09333 -0.511574
2005-07-14 08:07:07 51°13.995 2°53.072 21.9803 0.01848 0.09333 -0.511574
2005-07-14 08:07:12 51°13.984 2°53.045 22.0132 0.01848 0.093331 -0.511574
2005-07-14 08:07:16 51°13.977 2°53.025 21.976 0.01848 0.093332 -0.511574
2005-07-14 08:07:22 51°13.966 2°52.997 21.9941 0.01848 0.093332 -0.511574
2005-07-14 08:07:28 51°13.955 2°52.969 21.9934 0.01848 0.093333 -0.545283
2005-07-14 08:07:32 51°13.946 2°52.944 21.9923 0.01848 0.093333 -0.511574
2005-07-14 08:07:38 51°13.936 2°52.919 22.0104 0.01848 0.093333 -0.511574
2005-07-14 08:07:42 51°13.927 2°52.896 21.981 0.01848 0.093334 -0.545283
2005-07-14 08:07:47 51°13.918 2°52.871 22.0108 0.01848 0.093334 -0.511574
2005-07-14 08:07:52 51°13.907 2°52.844 22.0091 0.01848 0.093334 -0.511574
2005-07-14 08:07:58 51°13.897 2°52.819 22.0016 0.01848 0.093337 -0.477864
2005-07-14 08:08:01 51°13.89 2°52.802 21.9785 0.01848 0.093337 -0.511574
2005-07-14 08:08:08 51°13.878 2°52.769 22.0172 0.01848 0.093338 -0.477864
2005-07-14 08:08:12 51°13.869 2°52.746 21.9878 0.01848 0.093339 -0.511574
2005-07-14 08:08:17 51°13.86 2°52.721 21.9931 0.01848 0.093339 -0.545283
2005-07-14 08:08:22 51°13.849 2°52.693 22.009 0.01848 0.093339 -0.545283
2005-07-14 08:08:27 51°13.841 2°52.671 21.9652 0.01848 0.093339 -0.477864
2005-07-14 08:08:32 51°13.83 2°52.643 22.0054 0.01848 0.09334 -0.545283
2005-07-14 08:08:37 51°13.822 2°52.62 21.998 0.01848 0.093342 -0.511574
2005-07-14 08:08:42 51°13.811 2°52.592 22.0116 0.01848 0.093342 -0.511574
2005-07-14 08:08:47 51°13.803 2°52.569 21.9876 0.01848 0.093344 -0.511574
2005-07-14 08:08:52 51°13.793 2°52.544 22.0159 0.01848 0.093344 -0.511574
2005-07-14 08:08:56 51°13.785 2°52.521 22.0018 0.01848 0.093345 -0.511574
2005-07-14 08:09:02 51°13.774 2°52.493 22.0184 0.01848 0.093345 -0.511574
2005-07-14 08:09:07 51°13.765 2°52.468 22.0088 0.01848 0.093345 -0.511574
2005-07-14 08:09:12 51°13.754 2°52.44 22.0119 0.01848 0.093346 -0.477864
2005-07-14 08:09:17 51°13.746 2°52.417 22.0051 0.01848 0.093347 -0.477864
2005-07-14 08:09:22 51°13.736 2°52.392 22.0249 0.01848 0.093347 -0.477864
2005-07-14 08:09:27 51°13.726 2°52.367 21.9814 0.01848 0.093347 -0.511574
2005-07-14 08:09:32 51°13.716 2°52.339 21.9999 0.01848 0.093348 -0.511574
2005-07-14 08:09:37 51°13.707 2°52.316 22.0118 0.01848 0.093349 -0.511574
2005-07-14 08:09:42 51°13.696 2°52.288 22.0121 0.01848 0.093351 -0.511574
2005-07-14 08:09:48 51°13.687 2°52.262 22.0009 0.01848 0.093351 -0.511574
2005-07-14 08:09:52 51°13.677 2°52.237 22.007 0.01848 0.093351 -0.511574
2005-07-14 08:09:57 51°13.669 2°52.215 22.0154 0.01848 0.093351 -0.511574
2005-07-14 08:10:02 51°13.659 2°52.189 22.0336 0.01848 0.093353 -0.511574
2005-07-14 08:10:07 51°13.65 2°52.164 22.0091 0.01848 0.093354 -0.511574
2005-07-14 08:10:12 51°13.64 2°52.138 22.0296 0.01848 0.093354 -0.477864
2005-07-14 08:10:17 51°13.631 2°52.113 21.9967 0.01848 0.093354 -0.511574
2005-07-14 08:10:22 51°13.621 2°52.088 22.0096 0.01848 0.093354 -0.511574
2005-07-14 08:10:27 51°13.612 2°52.062 22.0144 0.01848 0.093355 -0.511574
2005-07-14 08:10:32 51°13.604 2°52.039 22.0363 0.01848 0.093355 -0.545283
2005-07-14 08:10:36 51°13.594 2°52.014 22.0132 0.01848 0.093357 -0.545283
2005-07-14 08:10:42 51°13.583 2°51.984 22.0227 0.01848 0.093357 -0.511574
2005-07-14 08:10:48 51°13.573 2°51.958 22.0209 0.01848 0.093359 -0.511574
2005-07-14 08:10:52 51°13.564 2°51.933 22.0256 0.01848 0.093359 -0.511574
2005-07-14 08:10:56 51°13.556 2°51.913 22.0171 0.01848 0.09336 -0.511574
2005-07-14 08:11:02 51°13.544 2°51.882 22.0189 0.01848 0.09336 -0.545283
2005-07-14 08:11:07 51°13.536 2°51.86 22.0037 0.01848 0.093361 -0.511574
2005-07-14 08:11:12 51°13.527 2°51.837 22.0333 0.01848 0.093361 -0.511574
2005-07-14 08:11:16 51°13.519 2°51.814 22.0093 0.01848 0.093362 -0.511574
2005-07-14 08:11:22 51°13.506 2°51.781 22.0417 0.01848 0.093362 -0.511574
2005-07-14 08:11:27 51°13.497 2°51.758 22.0063 0.01848 0.093363 -0.477864
2005-07-14 08:11:32 51°13.487 2°51.73 22.0093 0.01848 0.093364 -0.511574
2005-07-14 08:11:36 51°13.479 2°51.71 22.0035 0.01848 0.093364 -0.511574
2005-07-14 08:11:42 51°13.469 2°51.682 22.0296 0.01848 0.093365 -0.511574
2005-07-14 08:11:48 51°13.458 2°51.653 22.0432 0.01848 0.093365 -0.511574
2005-07-14 08:11:51 51°13.452 2°51.636 22.0321 0.01848 0.093365 -0.511574
2005-07-14 08:11:56 51°13.441 2°51.608 22.0358 0.01848 0.093367 -0.511574
2005-07-14 08:12:02 51°13.432 2°51.582 22.0095 0.01848 0.093367 -0.511574
2005-07-14 08:12:08 51°13.421 2°51.551 22.0338 0.01848 0.093368 -0.545283
2005-07-14 08:12:12 51°13.411 2°51.527 22.0243 0.01848 0.093369 -0.511574
2005-07-14 08:12:16 51°13.403 2°51.506 22.0136 0.01848 0.093369 -0.511574
2005-07-14 08:12:22 51°13.393 2°51.478 22.0059 0.01848 0.093369 -0.511574
2005-07-14 08:12:27 51°13.383 2°51.453 22.0265 0.01848 0.09337 -0.511574
2005-07-14 08:12:32 51°13.373 2°51.425 22.0235 0.01848 0.093371 -0.477864
2005-07-14 08:12:37 51°13.365 2°51.402 22.0483 0.01848 0.093372 -0.511574
2005-07-14 08:12:42 51°13.355 2°51.377 22.0184 0.01848 0.093374 -0.545283
2005-07-14 08:12:47 51°13.345 2°51.351 22.0357 0.01848 0.093375 -0.511574
2005-07-14 08:12:52 51°13.336 2°51.326 22.0293 0.01848 0.093375 -0.511574
2005-07-14 08:12:58 51°13.325 2°51.298 22.0176 0.01848 0.093375 -0.511574
2005-07-14 08:13:02 51°13.316 2°51.273 22.0113 0.01848 0.093376 -0.511574
2005-07-14 08:13:08 51°13.306 2°51.247 22.0426 0.01848 0.093377 -0.511574
2005-07-14 08:13:12 51°13.297 2°51.222 22.0332 0.01848 0.093378 -0.477864
2005-07-14 08:13:17 51°13.289 2°51.199 22.0408 0.01848 0.093378 -0.511574
2005-07-14 08:13:22 51°13.278 2°51.171 22.0362 0.01848 0.093378 -0.511574
2005-07-14 08:13:28 51°13.269 2°51.144 20.7857 0.01848 0.093379 -0.511574
2005-07-14 08:13:32 51°13.26 2°51.119 19.9496 0.01848 0.09338 -0.511574
2005-07-14 08:13:37 51°13.252 2°51.096 19.5632 0.018376 0.092965 -0.477864
2005-07-14 08:13:42 51°13.241 2°51.069 19.4547 0.01848 0.093556 -0.477864
2005-07-14 08:13:48 51°13.232 2°51.043 19.3829 1.286912 7.822907 -0.511574
2005-07-14 08:13:52 51°13.222 2°51.018 19.3353 1.286912 7.822907 -0.511574
2005-07-14 08:13:56 51°13.215 2°50.997 19.2682 3.020408 19.888639 -0.511574
2005-07-14 08:14:02 51°13.203 2°50.967 19.2237 3.003045 20.014946 2.016631
2005-07-14 08:14:08 51°13.194 2°50.941 19.1916 3.209083 21.767044 2.589691
2005-07-14 08:14:12 51°13.185 2°50.918 19.1812 3.604927 25.151426 3.061623
2005-07-14 08:14:16 51°13.177 2°50.895 19.1634 2.551581 17.361286 3.162751
2005-07-14 08:14:22 51°13.166 2°50.867 19.1562 2.551581 17.361286 3.162751
2005-07-14 08:14:27 51°13.157 2°50.842 19.1635 4.095556 29.457332 3.162751
2005-07-14 08:14:32 51°13.147 2°50.814 19.1492 4.136465 29.896311 3.19646
2005-07-14 08:14:37 51°13.138 2°50.791 19.1407 4.147432 30.09744 4.376289
2005-07-14 08:14:42 51°13.128 2°50.766 19.1438 4.15281 30.198287 4.983059
2005-07-14 08:14:48 51°13.118 2°50.738 19.1291 4.137734 30.124755 6.230306
2005-07-14 08:14:52 51°13.109 2°50.712 19.1243 4.137734 30.124755 6.230306
2005-07-14 08:14:56 51°13.101 2°50.692 19.1227 4.138578 30.145971 5.859503
2005-07-14 08:15:02 51°13.09 2°50.661 19.1191 4.16557 30.384357 5.960631
2005-07-14 08:15:08 51°13.08 2°50.635 19.1225 4.137524 30.164648 6.432563
2005-07-14 08:15:12 51°13.073 2°50.615 19.1388 4.127297 30.089266 6.162888
2005-07-14 08:15:17 51°13.062 2°50.587 19.1225 4.156292 30.341515 5.859503
2005-07-14 08:15:22 51°13.052 2°50.559 19.1212 4.156292 30.341515 5.859503
2005-07-14 08:15:27 51°13.043 2°50.535 19.1254 4.159666 30.371566 6.230306
2005-07-14 08:15:32 51°13.032 2°50.507 19.1138 4.117071 30.037455 5.724665
2005-07-14 08:15:38 51°13.023 2°50.481 19.1159 4.124451 30.097975 5.758375
2005-07-14 08:15:42 51°13.014 2°50.456 19.1053 4.13879 30.21874 5.792084
2005-07-14 08:15:48 51°13.004 2°50.43 19.1021 4.116122 30.035384 5.657247
2005-07-14 08:15:52 51°12.995 2°50.404 19.0968 4.116122 30.035384 5.657247
2005-07-14 08:15:57 51°12.986 2°50.381 19.0989 4.166625 30.449532 5.724665
2005-07-14 08:16:02 51°12.977 2°50.356 19.0828 4.169472 30.475332 5.657247
2005-07-14 08:16:07 51°12.967 2°50.33 19.0782 4.165676 30.448045 5.320153
2005-07-14 08:16:12 51°12.957 2°50.302 19.0881 4.176431 30.535701 5.016768
2005-07-14 08:16:16 51°12.949 2°50.282 19.0768 4.18571 30.622873 5.185315
2005-07-14 08:16:22 51°12.938 2°50.25 19.0695 4.18571 30.622873 5.185315
2005-07-14 08:16:27 51°12.93 2°50.227 19.0689 4.166731 30.474349 5.286443
2005-07-14 08:16:32 51°12.919 2°50.199 19.0734 4.171054 30.514821 5.050477
2005-07-14 08:16:34 51°12.915 2°50.189 19.0739 4.171792 30.530767 5.117896
2005-07-14 08:16:42 51°12.901 2°50.15 19.0671 4.174007 30.554588 5.286443
2005-07-14 08:16:48 51°12.891 2°50.122 19.0715 4.183601 30.636587 5.185315
2005-07-14 08:16:52 51°12.882 2°50.099 19.0679 4.183601 30.636587 5.185315
2005-07-14 08:16:56 51°12.874 2°50.076 19.0657 4.176115 30.581225 5.387571
2005-07-14 08:17:02 51°12.863 2°50.045 19.068 4.177697 30.595711 4.91564
2005-07-14 08:17:08 51°12.853 2°50.019 19.07 4.186238 30.668092 5.151606
2005-07-14 08:17:12 51°12.843 2°49.994 19.0713 4.181493 30.631432 5.286443
2005-07-14 08:17:16 51°12.836 2°49.974 19.0703 4.17348 30.564938 4.848221
2005-07-14 08:17:22 51°12.825 2°49.946 19.0589 4.17348 30.564938 4.848221
2005-07-14 08:17:27 51°12.815 2°49.92 19.06 4.18318 30.644163 5.320153
2005-07-14 08:17:32 51°12.805 2°49.892 19.0601 4.156188 30.43004 5.286443
2005-07-14 08:17:37 51°12.796 2°49.869 19.0678 4.175167 30.587098 4.747093
2005-07-14 08:17:42 51°12.787 2°49.843 19.0599 4.165256 30.496225 4.983059
2005-07-14 08:17:47 51°12.777 2°49.817 19.063 4.171687 30.549778 5.016768
2005-07-14 08:17:52 51°12.768 2°49.792 19.0595 4.171687 30.549778 5.016768
2005-07-14 08:17:56 51°12.759 2°49.769 19.0602 4.158824 30.447382 4.679674
2005-07-14 08:18:02 51°12.748 2°49.738 19.0589 4.176854 30.594587 4.713383
2005-07-14 08:18:07 51°12.739 2°49.715 19.0623 4.177592 30.599043 5.016768
2005-07-14 08:18:12 51°12.731 2°49.691 19.0586 4.160195 30.449702 4.88193
2005-07-14 08:18:16 51°12.722 2°49.666 19.0571 4.175166 30.567718 4.679674
2005-07-14 08:18:22 51°12.712 2°49.64 19.0571 4.175166 30.567718 4.679674
2005-07-14 08:18:28 51°12.701 2°49.609 19.0565 4.167997 30.508674 5.151606
2005-07-14 08:18:31 51°12.694 2°49.592 19.0624 4.177381 30.585794 4.88193
2005-07-14 08:18:38 51°12.682 2°49.558 19.0616 4.16631 30.495952 5.050477
2005-07-14 08:18:42 51°12.673 2°49.532 19.0616 4.174112 30.559111 5.016768
2005-07-14 08:18:47 51°12.664 2°49.509 19.061 4.165361 30.487686 4.679674
2005-07-14 08:18:52 51°12.654 2°49.481 19.0612 4.165361 30.487686 4.679674
2005-07-14 08:18:56 51°12.646 2°49.461 19.0537 4.175061 30.568427 5.286443
2005-07-14 08:19:02 51°12.634 2°49.43 19.0574 4.162409 30.466726 5.252734
2005-07-14 08:19:07 51°12.626 2°49.407 19.0558 4.178435 30.594402 5.050477
2005-07-14 08:19:12 51°12.615 2°49.379 19.0585 4.146488 30.334772 5.050477
2005-07-14 08:19:18 51°12.606 2°49.353 19.0595 4.174112 30.559111 5.252734
2005-07-14 08:19:22 51°12.597 2°49.33 19.0513 4.174112 30.559111 5.252734
2005-07-14 08:19:27 51°12.588 2°49.304 19.0622 4.172952 30.551213 4.747093
2005-07-14 08:19:31 51°12.58 2°49.284 19.0551 4.181809 30.624573 5.050477
2005-07-14 08:19:37 51°12.568 2°49.252 19.0542 4.19035 30.69643 5.320153
2005-07-14 08:19:42 51°12.558 2°49.224 19.051 4.190455 30.696766 5.050477
2005-07-14 08:19:48 51°12.548 2°49.198 19.0488 4.1797 30.608401 4.91564
2005-07-14 08:19:52 51°12.539 2°49.173 19.0443 4.1797 30.608401 4.91564
2005-07-14 08:19:56 51°12.531 2°49.152 19.0435 4.190139 30.693131 4.848221
2005-07-14 08:20:02 51°12.52 2°49.121 19.0434 4.174639 30.567602 4.814512
2005-07-14 08:20:08 51°12.51 2°49.095 19.0457 4.1952 30.736058 5.219024
2005-07-14 08:20:12 51°12.501 2°49.069 19.0406 4.195094 30.735196 5.387571
2005-07-14 08:20:16 51°12.493 2°49.049 19.0415 4.200893 30.781005 5.421281
2005-07-14 08:20:22 51°12.482 2°49.018 19.0353 4.200893 30.781005 5.421281
2005-07-14 08:20:28 51°12.472 2°48.992 19.0337 4.189928 30.697717 5.185315
2005-07-14 08:20:31 51°12.465 2°48.974 19.0339 4.19636 30.751856 5.050477
2005-07-14 08:20:37 51°12.454 2°48.944 19.0382 4.179595 30.618028 5.151606
2005-07-14 08:20:42 51°12.445 2°48.918 19.03 4.197098 30.760523 5.050477
2005-07-14 08:20:48 51°12.434 2°48.889 19.027 4.197625 30.766941 4.814512
2005-07-14 08:20:52 51°12.426 2°48.866 19.0237 4.197625 30.766941 4.814512
2005-07-14 08:20:57 51°12.416 2°48.84 19.02 4.201421 30.799557 5.421281
2005-07-14 08:21:02 51°12.406 2°48.812 19.0204 4.199523 30.785622 5.050477
2005-07-14 08:21:08 51°12.396 2°48.786 19.022 4.19267 30.732227 4.949349
2005-07-14 08:21:12 51°12.388 2°48.764 19.0185 4.203952 30.825531 5.387571
2005-07-14 08:21:17 51°12.378 2°48.738 19.0191 4.201948 30.810731 5.252734
2005-07-14 08:21:22 51°12.369 2°48.712 19.017 4.201948 30.810731 5.252734
2005-07-14 08:21:27 51°12.359 2°48.687 19.0178 4.204795 30.83613 5.151606
2005-07-14 08:21:32 51°12.35 2°48.663 19.0178 4.181177 30.6467 5.084187
2005-07-14 08:21:38 51°12.339 2°48.632 19.0185 4.21439 30.919402 5.185315
2005-07-14 08:21:42 51°12.33 2°48.607 19.0143 4.189507 30.717426 4.949349
2005-07-14 08:21:48 51°12.32 2°48.581 19.0162 4.202476 30.82614 5.050477
2005-07-14 08:21:52 51°12.312 2°48.56 19.0129 4.202476 30.82614 5.050477
2005-07-14 08:21:57 51°12.302 2°48.532 19.016 4.209013 30.879103 4.983059
2005-07-14 08:22:02 51°12.291 2°48.504 19.0124 4.209751 30.886202 4.814512
2005-07-14 08:22:08 51°12.282 2°48.478 19.0162 4.213758 30.917936 4.91564
2005-07-14 08:22:12 51°12.273 2°48.455 19.0139 4.21671 30.943694 4.848221
2005-07-14 08:22:17 51°12.264 2°48.429 19.0153 4.21302 30.914545 4.511127
2005-07-14 08:22:22 51°12.254 2°48.401 19.01 4.21302 30.914545 4.511127
2005-07-14 08:22:28 51°12.244 2°48.375 19.0074 4.209646 30.887988 4.780802
2005-07-14 08:22:32 51°12.236 2°48.351 19.0021 4.213442 30.919589 4.747093
2005-07-14 08:22:37 51°12.226 2°48.326 18.9987 4.222088 30.991442 4.88193
2005-07-14 08:22:42 51°12.216 2°48.297 18.9995 4.198996 30.8019 4.578546
2005-07-14 08:22:48 51°12.206 2°48.271 18.9967 4.212809 30.91441 4.308871
2005-07-14 08:22:52 51°12.198 2°48.248 18.9933 4.212809 30.91441 4.308871
2005-07-14 08:22:57 51°12.188 2°48.222 18.9969 4.203425 30.838664 4.308871
2005-07-14 08:23:02 51°12.178 2°48.197 18.9905 4.232421 31.077678 4.612255
2005-07-14 08:23:08 51°12.168 2°48.168 18.9863 4.212704 30.919911 4.747093
2005-07-14 08:23:12 51°12.158 2°48.143 18.9837 4.220506 30.986463 4.814512
2005-07-14 08:23:18 51°12.149 2°48.117 18.9856 4.222404 31.003074 4.544836
2005-07-14 08:23:22 51°12.14 2°48.094 18.9843 4.222404 31.003074 4.544836
2005-07-14 08:23:28 51°12.129 2°48.065 18.9842 4.221666 31.000219 4.241452
2005-07-14 08:23:32 51°12.12 2°48.039 18.9786 4.229047 31.06176 4.275161
2005-07-14 08:23:36 51°12.112 2°48.019 18.9799 4.219874 30.988194 4.679674
2005-07-14 08:23:42 51°12.1 2°47.988 18.9758 4.224935 31.032325 4.91564
2005-07-14 08:23:47 51°12.092 2°47.964 18.976 4.229575 31.072481 4.713383
2005-07-14 08:23:52 51°12.081 2°47.936 18.9703 4.229575 31.072481 4.713383
2005-07-14 08:23:56 51°12.073 2°47.915 18.9676 4.21534 30.956367 4.612255
2005-07-14 08:24:02 51°12.062 2°47.884 18.9647 4.216289 30.965205 4.174033
2005-07-14 08:24:08 51°12.052 2°47.858 18.9709 4.224303 31.033533 5.151606
2005-07-14 08:24:11 51°12.045 2°47.84 18.9674 4.223459 31.028218 4.949349
2005-07-14 08:24:16 51°12.035 2°47.811 18.972 4.229575 31.080485 4.88193
2005-07-14 08:24:22 51°12.023 2°47.78 18.9706 4.229575 31.080485 4.88193
2005-07-14 08:24:27 51°12.015 2°47.756 18.9709 4.20817 30.906656 4.679674
2005-07-14 08:24:32 51°12.005 2°47.73 18.9783 4.233687 31.11741 5.185315
2005-07-14 08:24:37 51°11.996 2°47.704 18.9792 4.229364 31.084094 4.612255
2005-07-14 08:24:42 51°11.985 2°47.676 18.9819 4.235902 31.138779 4.848221
2005-07-14 08:24:48 51°11.975 2°47.649 18.9803 4.23432 31.125806 4.88193
2005-07-14 08:24:52 51°11.967 2°47.625 18.9804 4.23432 31.125806 4.88193
2005-07-14 08:24:57 51°11.958 2°47.602 18.9783 4.234636 31.126797 5.050477
2005-07-14 08:25:02 51°11.947 2°47.573 18.9785 4.239592 31.167982 4.949349
2005-07-14 08:25:08 51°11.937 2°47.544 18.9742 4.230102 31.089079 5.050477
2005-07-14 08:25:12 51°11.929 2°47.524 18.9691 4.238116 31.151057 5.117896
2005-07-14 08:25:17 51°11.92 2°47.498 18.9701 4.234847 31.122646 4.949349
2005-07-14 08:25:22 51°11.909 2°47.469 18.967 4.234847 31.122646 4.949349
2005-07-14 08:25:27 51°11.9 2°47.443 18.9671 4.229258 31.075757 5.084187
2005-07-14 08:25:32 51°11.892 2°47.416 18.9655 4.242861 31.188906 4.814512
2005-07-14 08:25:37 51°11.884 2°47.391 18.9609 4.24613 31.216793 5.353862
2005-07-14 08:25:43 51°11.874 2°47.359 18.9639 4.240752 31.174285 4.949349
2005-07-14 08:25:47 51°11.867 2°47.334 18.9594 4.239592 31.166912 5.117896
2005-07-14 08:25:52 51°11.86 2°47.31 18.9535 4.239592 31.166912 5.117896
2005-07-14 08:25:56 51°11.853 2°47.285 18.9518 4.243072 31.197065 4.780802
2005-07-14 08:26:02 51°11.843 2°47.252 18.9536 4.232738 31.112834 5.185315
2005-07-14 08:26:07 51°11.835 2°47.225 18.9555 4.247184 31.233491 5.016768
2005-07-14 08:26:11 51°11.829 2°47.203 18.9553 4.244548 31.213467 5.050477
2005-07-14 08:26:18 51°11.818 2°47.167 18.9594 4.246446 31.228507 5.387571
2005-07-14 08:26:22 51°11.811 2°47.143 18.9604 4.246446 31.228507 5.387571
2005-07-14 08:26:28 51°11.802 2°47.112 18.9611 4.242545 31.199707 4.983059
2005-07-14 08:26:32 51°11.795 2°47.088 18.959 4.251191 31.274437 5.387571
2005-07-14 08:26:37 51°11.787 2°47.063 18.9592 4.245919 31.232766 5.45499
2005-07-14 08:26:42 51°11.778 2°47.033 18.962 4.264161 31.382026 5.151606
2005-07-14 08:26:47 51°11.77 2°47.006 18.9605 4.253722 31.295215 5.657247
2005-07-14 08:26:52 51°11.763 2°46.981 18.9579 4.253722 31.295215 5.657247
2005-07-14 08:26:57 51°11.754 2°46.954 18.9595 4.248977 31.255721 6.196597
2005-07-14 08:27:02 51°11.745 2°46.924 18.9565 4.248661 31.252587 5.117896
2005-07-14 08:27:07 51°11.737 2°46.896 18.9516 4.25678 31.319249 5.623537
2005-07-14 08:27:12 51°11.73 2°46.872 18.955 4.252246 31.280944 5.859503
2005-07-14 08:27:17 51°11.721 2°46.845 18.9512 4.242018 31.196989 5.117896
2005-07-14 08:27:22 51°11.712 2°46.815 18.9471 4.242018 31.196989 5.117896
2005-07-14 08:27:27 51°11.704 2°46.787 18.9378 4.257413 31.324444 5.623537
2005-07-14 08:27:33 51°11.695 2°46.757 18.9344 4.255304 31.306589 5.320153
2005-07-14 08:27:37 51°11.689 2°46.732 18.9295 4.251086 31.272497 5.825794
2005-07-14 08:27:42 51°11.681 2°46.704 18.9248 4.2533 31.293366 6.02805
2005-07-14 08:27:48 51°11.673 2°46.673 18.9254 4.257729 31.330272 5.825794
2005-07-14 08:27:52 51°11.667 2°46.648 18.9222 4.257729 31.330272 5.825794
2005-07-14 08:27:57 51°11.66 2°46.623 18.9175 4.249926 31.269423 6.02805
2005-07-14 08:28:02 51°11.652 2°46.592 18.9131 4.263845 31.385901 5.556118
2005-07-14 08:28:07 51°11.645 2°46.564 18.9125 4.256253 31.327842 5.421281
2005-07-14 08:28:12 51°11.637 2°46.536 18.912 4.232422 31.134844 5.792084
2005-07-14 08:28:17 51°11.631 2°46.511 18.9118 4.261104 31.373626 5.252734
2005-07-14 08:28:22 51°11.623 2°46.48 18.9095 4.261104 31.373626 5.252734
2005-07-14 08:28:27 51°11.615 2°46.452 18.9069 4.239276 31.198082 5.522409
2005-07-14 08:28:32 51°11.608 2°46.424 18.9045 4.26026 31.373709 5.758375
2005-07-14 08:28:37 51°11.601 2°46.396 18.9041 4.270278 31.45877 6.162888
2005-07-14 08:28:42 51°11.594 2°46.368 18.902 4.238644 31.201473 5.792084
2005-07-14 08:28:47 51°11.587 2°46.34 18.8998 4.264056 31.411398 5.758375
2005-07-14 08:28:53 51°11.579 2°46.309 18.9019 4.264056 31.411398 5.758375
2005-07-14 08:28:57 51°11.572 2°46.284 18.9023 4.269329 31.457461 5.792084
2005-07-14 08:29:02 51°11.565 2°46.256 18.8997 4.274074 31.496493 5.353862
2005-07-14 08:29:07 51°11.558 2°46.228 18.9038 4.244233 31.253837 6.162888
2005-07-14 08:29:12 51°11.551 2°46.203 18.9023 4.245498 31.266388 5.556118
2005-07-14 08:29:16 51°11.544 2°46.178 18.9022 4.272914 31.493455 5.4887
2005-07-14 08:29:23 51°11.535 2°46.141 18.8968 4.272914 31.493455 5.4887
2005-07-14 08:29:27 51°11.528 2°46.116 18.8942 4.27439 31.506144 5.690956
2005-07-14 08:29:32 51°11.521 2°46.091 18.8958 4.273969 31.502674 5.387571
2005-07-14 08:29:37 51°11.514 2°46.063 18.8908 4.275129 31.512761 5.690956
2005-07-14 08:29:43 51°11.505 2°46.029 18.8902 4.277448 31.532394 5.151606
2005-07-14 08:29:47 51°11.499 2°46.004 18.8858 4.277238 31.530115 5.589828
2005-07-14 08:29:52 51°11.491 2°45.976 18.8865 4.277238 31.530115 5.589828
2005-07-14 08:29:57 51°11.485 2°45.95 18.8863 4.280717 31.559297 5.421281
2005-07-14 08:30:03 51°11.476 2°45.916 18.88 4.278187 31.540641 5.387571
2005-07-14 08:30:08 51°11.469 2°45.888 18.877 4.280612 31.56169 5.657247
2005-07-14 08:30:13 51°11.462 2°45.86 18.8781 4.276816 31.532616 5.623537
2005-07-14 08:30:17 51°11.455 2°45.835 18.8741 4.284514 31.598161 5.45499
2005-07-14 08:30:22 51°11.447 2°45.807 18.8728 4.284514 31.598161 5.45499
2005-07-14 08:30:28 51°11.439 2°45.776 18.8732 4.290208 31.647777 5.45499
2005-07-14 08:30:33 51°11.432 2°45.748 18.868 4.25425 31.352901 5.219024
2005-07-14 08:30:37 51°11.425 2°45.723 18.8669 4.278081 31.551182 5.117896
2005-07-14 08:30:43 51°11.417 2°45.691 18.8676 4.283776 31.600791 5.286443
2005-07-14 08:30:47 51°11.412 2°45.669 18.8652 4.285568 31.61719 5.724665
2005-07-14 08:30:52 51°11.404 2°45.638 18.8641 4.285568 31.61719 5.724665
2005-07-14 08:30:57 51°11.397 2°45.61 18.8627 4.287361 31.633047 5.657247
2005-07-14 08:31:02 51°11.389 2°45.582 18.8657 4.26469 31.448533 5.657247
2005-07-14 08:31:07 51°11.382 2°45.553 18.8621 4.288416 31.643369 5.016768
2005-07-14 08:31:11 51°11.376 2°45.531 18.8615 4.291157 31.669778 5.353862
2005-07-14 08:31:18 51°11.367 2°45.494 18.8596 4.279874 31.577365 5.556118
2005-07-14 08:31:23 51°11.359 2°45.466 18.8562 4.279874 31.577365 5.556118
2005-07-14 08:31:27 51°11.353 2°45.441 18.8569 4.275445 31.542518 5.45499
2005-07-14 08:31:32 51°11.346 2°45.415 18.8561 4.285358 31.624716 5.758375
2005-07-14 08:31:37 51°11.339 2°45.387 18.854 4.291052 31.671638 5.387571
2005-07-14 08:31:42 51°11.331 2°45.356 18.8515 4.278082 31.565864 5.724665
2005-07-14 08:31:47 51°11.324 2°45.328 18.8487 4.299172 31.741846 5.353862
2005-07-14 08:31:52 51°11.317 2°45.302 18.851 4.299172 31.741846 5.353862
2005-07-14 08:31:57 51°11.31 2°45.274 18.8465 4.289259 31.660139 5.690956
2005-07-14 08:32:03 51°11.301 2°45.24 18.8451 4.284092 31.620831 5.623537
2005-07-14 08:32:08 51°11.294 2°45.211 18.8435 4.287045 31.645163 5.657247
2005-07-14 08:32:12 51°11.288 2°45.186 18.8367 4.291368 31.682983 5.4887
2005-07-14 08:32:17 51°11.281 2°45.16 18.8354 4.289787 31.67049 5.4887
2005-07-14 08:32:22 51°11.273 2°45.129 18.8342 4.289787 31.67049 5.4887
2005-07-14 08:32:28 51°11.265 2°45.098 18.8293 4.280191 31.592494 6.230306
2005-07-14 08:32:32 51°11.26 2°45.075 18.826 4.290525 31.679306 5.960631
2005-07-14 08:32:37 51°11.252 2°45.047 18.829 4.267432 31.490092 5.623537
2005-07-14 08:32:42 51°11.244 2°45.015 18.825 4.295165 31.720296 5.623537
2005-07-14 08:32:47 51°11.237 2°44.987 18.8246 4.286307 31.650539 5.353862
2005-07-14 08:32:51 51°11.231 2°44.964 18.8277 4.286307 31.650539 5.353862
2005-07-14 08:32:57 51°11.223 2°44.933 18.8225 4.275551 31.562971 6.061759
2005-07-14 08:33:02 51°11.215 2°44.902 18.8204 4.300437 31.771998 5.690956
2005-07-14 08:33:07 51°11.207 2°44.874 18.8216 4.298645 31.759401 5.724665
2005-07-14 08:33:12 51°11.2 2°44.846 18.8221 4.271544 31.537021 5.792084
2005-07-14 08:33:17 51°11.193 2°44.817 18.8228 4.279031 31.600917 5.320153
2005-07-14 08:33:23 51°11.185 2°44.786 18.8205 4.279031 31.600917 5.320153
2005-07-14 08:33:27 51°11.178 2°44.76 18.8185 4.295903 31.740068 6.095469
2005-07-14 08:33:32 51°11.171 2°44.731 18.8177 4.28346 31.638527 5.994341
2005-07-14 08:33:37 51°11.164 2°44.703 18.8165 4.273442 31.558655 5.589828
2005-07-14 08:33:43 51°11.156 2°44.671 18.8169 4.318364 31.929314 5.960631
2005-07-14 08:33:47 51°11.151 2°44.649 18.819 4.318681 31.931375 6.061759
2005-07-14 08:33:52 51°11.142 2°44.617 18.8195 4.318681 31.931375 6.061759
2005-07-14 08:33:57 51°11.136 2°44.592 18.8199 4.319208 31.937934 5.690956
2005-07-14 08:34:03 51°11.127 2°44.558 18.8196 4.319841 31.94316 5.4887
2005-07-14 08:34:07 51°11.12 2°44.532 18.82 4.321106 31.953612 5.758375
2005-07-14 08:34:12 51°11.113 2°44.504 18.8209 4.320895 31.953525 5.623537
2005-07-14 08:34:17 51°11.106 2°44.478 18.8215 4.321001 31.955499 5.792084
2005-07-14 08:34:23 51°11.097 2°44.444 18.8215 4.321001 31.955499 5.792084
2005-07-14 08:34:28 51°11.09 2°44.416 18.8203 4.32079 31.952654 5.4887
2005-07-14 08:34:33 51°11.082 2°44.388 18.8195 4.321106 31.954715 5.522409
2005-07-14 08:34:37 51°11.076 2°44.365 18.8175 4.321001 31.953844 5.556118
2005-07-14 08:34:42 51°11.069 2°44.334 18.8151 4.321528 31.958199 5.657247
2005-07-14 08:34:47 51°11.061 2°44.305 18.81 4.321844 31.959709 5.926922
2005-07-14 08:34:53 51°11.053 2°44.274 18.8108 4.321844 31.959709 5.926922
2005-07-14 08:34:57 51°11.048 2°44.251 18.8063 4.321739 31.957735 6.095469
2005-07-14 08:35:02 51°11.04 2°44.22 18.8022 4.322372 31.964064 6.196597
2005-07-14 08:35:07 51°11.032 2°44.192 18.8021 4.322583 31.965806 5.421281
2005-07-14 08:35:13 51°11.024 2°44.16 18.8034 4.323637 31.976725 5.690956
2005-07-14 08:35:17 51°11.018 2°44.137 18.801 4.32427 31.983608 5.252734
2005-07-14 08:35:22 51°11.01 2°44.106 18.8008 4.32427 31.983608 5.252734
2005-07-14 08:35:27 51°11.003 2°44.078 18.7999 4.325325 31.995082 5.556118
2005-07-14 08:35:32 51°10.997 2°44.052 18.8017 4.325641 31.998801 5.994341
2005-07-14 08:35:37 51°10.988 2°44.021 18.8037 4.316467 31.925762 5.522409
2005-07-14 08:35:42 51°10.981 2°43.992 18.8015 4.32775 32.0201 5.926922
2005-07-14 08:35:47 51°10.974 2°43.964 18.7986 4.328383 32.028094 5.893212
2005-07-14 08:35:52 51°10.966 2°43.936 18.7964 4.328383 32.028094 5.893212
2005-07-14 08:35:57 51°10.959 2°43.907 18.791 4.330176 32.04236 5.556118
2005-07-14 08:36:02 51°10.951 2°43.879 18.7905 4.331019 32.049887 5.792084
2005-07-14 08:36:08 51°10.943 2°43.848 18.789 4.331546 32.055353 5.657247
2005-07-14 08:36:12 51°10.937 2°43.825 18.7829 4.332812 32.064153 6.230306
2005-07-14 08:36:17 51°10.93 2°43.797 18.7798 4.334394 32.077784 6.432563
2005-07-14 08:36:23 51°10.921 2°43.763 18.7817 4.334394 32.077784 6.432563
2005-07-14 08:36:27 51°10.914 2°43.738 18.7876 4.336292 32.095696 6.162888
2005-07-14 08:36:32 51°10.907 2°43.71 18.7946 4.339034 32.120033 6.02805
2005-07-14 08:36:37 51°10.9 2°43.682 18.8039 4.340088 32.130974 5.859503
2005-07-14 08:36:42 51°10.892 2°43.654 18.813 4.341459 32.143979 5.690956
2005-07-14 08:36:47 51°10.885 2°43.626 18.8197 4.343674 32.166189 5.387571
2005-07-14 08:36:52 51°10.877 2°43.598 18.8239 4.343674 32.166189 5.387571
2005-07-14 08:36:57 51°10.869 2°43.569 18.8278 4.34515 32.180629 6.02805
2005-07-14 08:37:02 51°10.862 2°43.542 18.8288 4.346627 32.192845 5.623537
2005-07-14 08:37:07 51°10.854 2°43.514 18.83 4.347365 32.195616 6.162888
2005-07-14 08:37:13 51°10.846 2°43.483 18.8329 4.347576 32.191798 5.960631
2005-07-14 08:37:17 51°10.84 2°43.46 18.8338 4.348419 32.193216 6.331435
2005-07-14 08:37:22 51°10.832 2°43.43 18.8378 4.348419 32.193216 6.331435
2005-07-14 08:37:27 51°10.825 2°43.402 18.8379 4.348736 32.190273 6.129178
2005-07-14 08:37:32 51°10.818 2°43.377 18.8369 4.351266 32.205645 5.960631
2005-07-14 08:37:37 51°10.81 2°43.349 18.8359 4.352321 32.212141 5.792084
2005-07-14 08:37:42 51°10.802 2°43.318 18.8339 4.35443 32.225133 6.02805
2005-07-14 08:37:47 51°10.795 2°43.29 18.8289 4.355801 32.234244 5.690956
2005-07-14 08:37:52 51°10.787 2°43.262 18.8251 4.355801 32.234244 5.690956
2005-07-14 08:37:57 51°10.78 2°43.234 18.8145 4.357383 32.246212 6.398853
2005-07-14 08:38:02 51°10.773 2°43.209 18.8102 4.358121 32.250646 6.466272
2005-07-14 08:38:08 51°10.764 2°43.176 18.8021 4.360441 32.269274 6.264016
2005-07-14 08:38:12 51°10.758 2°43.153 18.7983 4.362656 32.287032 6.60111
2005-07-14 08:38:17 51°10.751 2°43.125 18.7905 4.364659 32.30416 6.803366
2005-07-14 08:38:23 51°10.742 2°43.092 18.7888 4.364659 32.30416 6.803366
2005-07-14 08:38:27 51°10.736 2°43.066 18.7871 4.366347 32.321464 6.803366
2005-07-14 08:38:32 51°10.729 2°43.04 18.7805 4.369405 32.350673 6.264016
2005-07-14 08:38:37 51°10.722 2°43.012 18.7823 4.370776 32.367605 6.398853
2005-07-14 08:38:42 51°10.715 2°42.981 18.7807 4.37278 32.389222 6.499982
2005-07-14 08:38:47 51°10.707 2°42.952 18.778 4.374151 32.406728 6.870785
2005-07-14 08:38:52 51°10.701 2°42.927 18.7796 4.374151 32.406728 6.870785
2005-07-14 08:38:57 51°10.693 2°42.899 18.7806 4.3751 32.419068 6.702238
2005-07-14 08:39:02 51°10.686 2°42.867 18.7829 4.375417 32.424489 6.60111
2005-07-14 08:39:07 51°10.68 2°42.841 18.7877 4.375522 32.428725 7.17417
2005-07-14 08:39:13 51°10.672 2°42.807 18.7897 4.374151 32.420171 6.769657
2005-07-14 08:39:17 51°10.666 2°42.781 18.7882 4.373835 32.419231 6.735947
2005-07-14 08:39:22 51°10.66 2°42.752 18.7859 4.373835 32.419231 6.735947
2005-07-14 08:39:28 51°10.652 2°42.72 18.782 4.374046 32.421539 7.106751
2005-07-14 08:39:33 51°10.645 2°42.691 18.778 4.373624 32.420286 6.196597
2005-07-14 08:39:38 51°10.638 2°42.662 18.7719 4.373624 32.418044 6.702238
2005-07-14 08:39:43 51°10.631 2°42.634 18.7645 4.373097 32.411435 7.309007
2005-07-14 08:39:47 51°10.625 2°42.608 18.7534 4.372569 32.406507 7.207879
2005-07-14 08:39:53 51°10.618 2°42.576 18.7458 4.372569 32.406507 7.207879
2005-07-14 08:39:57 51°10.612 2°42.55 18.7419 4.373202 32.410628 8.118033
2005-07-14 08:40:02 51°10.605 2°42.521 18.7308 4.373413 32.414616 8.050614
2005-07-14 08:40:07 51°10.598 2°42.492 18.7229 4.37394 32.420665 7.646101
2005-07-14 08:40:12 51°10.591 2°42.463 18.7181 4.375206 32.436195 7.74723
2005-07-14 08:40:17 51°10.584 2°42.434 18.7139 4.378053 32.463718 8.185452
2005-07-14 08:40:22 51°10.578 2°42.405 18.7065 4.378053 32.463718 8.185452
2005-07-14 08:40:27 51°10.571 2°42.376 18.7044 4.381112 32.496934 7.71352
2005-07-14 08:40:32 51°10.564 2°42.35 18.7042 4.384381 32.529667 8.084324
2005-07-14 08:40:37 51°10.557 2°42.322 18.7 4.386807 32.557106 8.050614
2005-07-14 08:40:43 51°10.549 2°42.287 18.6964 4.389444 32.586311 7.882067
2005-07-14 08:40:47 51°10.543 2°42.261 18.6894 4.391764 32.612341 8.118033
2005-07-14 08:40:52 51°10.536 2°42.232 18.6818 4.391764 32.612341 8.118033
2005-07-14 08:40:57 51°10.529 2°42.203 18.6781 4.393135 32.629937 7.646101
2005-07-14 08:41:02 51°10.522 2°42.174 18.6682 4.394611 32.645589 7.983195
2005-07-14 08:41:08 51°10.515 2°42.143 18.6636 4.395982 32.658672 7.983195
2005-07-14 08:41:12 51°10.508 2°42.117 18.6587 4.396615 32.668455 7.882067
2005-07-14 08:41:17 51°10.502 2°42.09 18.6624 4.397459 32.678861 7.646101
2005-07-14 08:41:22 51°10.495 2°42.059 18.6501 4.397459 32.678861 7.646101
2005-07-14 08:41:27 51°10.488 2°42.03 18.6494 4.398408 32.691845 7.376426
2005-07-14 08:41:31 51°10.483 2°42.006 18.6407 4.398408 32.696379 7.882067
2005-07-14 08:41:37 51°10.476 2°41.974 18.64 4.39883 32.706121 7.443845
2005-07-14 08:41:42 51°10.468 2°41.942 18.6384 4.399569 32.717931 7.983195
2005-07-14 08:41:47 51°10.462 2°41.913 18.6336 4.399674 32.72278 7.679811
2005-07-14 08:41:52 51°10.455 2°41.885 18.6326 4.399674 32.72278 7.679811
2005-07-14 08:41:57 51°10.449 2°41.858 18.6406 4.39978 32.728198 8.084324
2005-07-14 08:42:02 51°10.441 2°41.827 18.6494 4.400624 32.738623 8.118033
2005-07-14 08:42:07 51°10.435 2°41.798 18.6535 4.40094 32.7458 8.151742
2005-07-14 08:42:11 51°10.429 2°41.775 18.6622 4.401467 32.75246 8.252871
2005-07-14 08:42:17 51°10.422 2°41.743 18.6633 4.401889 32.760518 7.848358
2005-07-14 08:42:22 51°10.415 2°41.712 18.6656 4.401889 32.760518 7.848358
2005-07-14 08:42:27 51°10.408 2°41.683 18.6686 4.403049 32.774153 7.376426
2005-07-14 08:42:32 51°10.403 2°41.657 18.6707 4.403049 32.773584 7.612392
2005-07-14 08:42:37 51°10.396 2°41.628 18.675 4.403893 32.77833 7.882067
2005-07-14 08:42:42 51°10.39 2°41.596 18.6769 4.405897 32.789883 7.679811
2005-07-14 08:42:47 51°10.384 2°41.567 18.6769 4.406635 32.790904 7.17417
2005-07-14 08:42:52 51°10.378 2°41.541 18.6782 4.406635 32.790904 7.17417
2005-07-14 08:42:57 51°10.372 2°41.512 18.6808 4.41001 32.81443 7.983195
2005-07-14 08:43:02 51°10.366 2°41.48 18.6766 4.410959 32.81948 7.241589
2005-07-14 08:43:07 51°10.361 2°41.454 18.6739 4.411802 32.825361 7.949486
2005-07-14 08:43:13 51°10.354 2°41.419 18.6685 4.413279 32.834227 7.646101
2005-07-14 08:43:17 51°10.348 2°41.393 18.6679 4.412962 32.829317 8.016905
2005-07-14 08:43:22 51°10.342 2°41.364 18.6661 4.412962 32.829317 8.016905
2005-07-14 08:43:28 51°10.335 2°41.332 18.6617 4.41349 32.831996 8.016905
2005-07-14 08:43:32 51°10.331 2°41.309 18.666 4.413701 32.832611 7.679811
2005-07-14 08:43:37 51°10.324 2°41.277 18.6687 4.413806 32.832919 7.848358
2005-07-14 08:43:42 51°10.318 2°41.248 18.6685 4.414333 32.839014 7.74723
2005-07-14 08:43:47 51°10.312 2°41.222 18.6717 4.414966 32.848265 8.320289
2005-07-14 08:43:51 51°10.306 2°41.199 18.6727 4.414966 32.848265 8.320289
2005-07-14 08:43:58 51°10.296 2°41.16 18.6697 4.414861 32.847958 7.71352
2005-07-14 08:44:02 51°10.289 2°41.135 18.6676 4.415177 32.852869 8.084324
2005-07-14 08:44:07 51°10.281 2°41.107 18.6695 4.415283 32.856597 8.657383
2005-07-14 08:44:12 51°10.273 2°41.082 18.6719 4.414228 32.846112 7.882067
2005-07-14 08:44:17 51°10.265 2°41.055 18.6744 4.414228 32.843833 7.646101
2005-07-14 08:44:22 51°10.255 2°41.025 18.6794 4.414228 32.843833 7.646101
2005-07-14 08:44:27 51°10.247 2°40.998 18.6798 4.413595 32.837429 8.758512
2005-07-14 08:44:32 51°10.239 2°40.973 18.6854 4.413806 32.838614 8.758512
2005-07-14 08:44:37 51°10.231 2°40.946 18.6859 4.414439 32.843878 8.320289
2005-07-14 08:44:42 51°10.222 2°40.915 18.688 4.414544 32.846465 8.724802
2005-07-14 08:44:47 51°10.214 2°40.888 18.6862 4.41465 32.844494 8.353999
2005-07-14 08:44:52 51°10.206 2°40.863 18.6814 4.41465 32.844494 8.353999
2005-07-14 08:44:57 51°10.198 2°40.835 18.6786 4.414017 32.83866 8.623674
2005-07-14 08:45:03 51°10.188 2°40.802 18.6729 4.41349 32.831996 9.567537
2005-07-14 08:45:07 51°10.181 2°40.777 18.6707 4.412962 32.823625 8.758512
2005-07-14 08:45:12 51°10.173 2°40.752 18.669 4.412751 32.820163 9.095606
2005-07-14 08:45:17 51°10.164 2°40.721 18.6693 4.413384 32.823718 8.320289
2005-07-14 08:45:23 51°10.155 2°40.691 18.6656 4.413384 32.823718 8.320289
2005-07-14 08:45:27 51°10.148 2°40.666 18.6664 4.413911 32.828673 8.758512
2005-07-14 08:45:32 51°10.14 2°40.638 18.6635 4.413911 32.83095 8.792221
2005-07-14 08:45:37 51°10.132 2°40.61 18.665 4.415388 32.847787 8.960768
2005-07-14 08:45:43 51°10.123 2°40.58 18.6568 4.416548 32.858008 10.275435
2005-07-14 08:45:47 51°10.115 2°40.555 18.6572 4.416865 32.86406 9.769794
2005-07-14 08:45:53 51°10.106 2°40.524 18.6569 4.416865 32.86406 9.769794
2005-07-14 08:45:57 51°10.099 2°40.499 18.6571 4.417181 32.866692 10.174306
2005-07-14 08:46:02 51°10.091 2°40.474 18.6524 4.417497 32.871035 9.601247
2005-07-14 08:46:08 51°10.081 2°40.441 18.6501 4.417919 32.876826 10.443982
2005-07-14 08:46:12 51°10.074 2°40.416 18.6466 4.41929 32.888807 10.275435
2005-07-14 08:46:17 51°10.067 2°40.391 18.6472 4.41929 32.89166 9.39899
2005-07-14 08:46:23 51°10.057 2°40.357 18.646 4.41929 32.89166 9.39899
2005-07-14 08:46:27 51°10.05 2°40.332 18.643 4.420134 32.900394 10.174306
2005-07-14 08:46:33 51°10.041 2°40.301 18.6411 4.420345 32.904434 10.106888
2005-07-14 08:46:38 51°10.034 2°40.272 18.6394 4.420556 32.908474 9.837212
2005-07-14 08:46:42 51°10.026 2°40.248 18.6405 4.4214 32.917212 10.376563
2005-07-14 08:46:47 51°10.018 2°40.22 18.6398 4.422138 32.925073 10.073178
2005-07-14 08:46:52 51°10.01 2°40.191 18.6403 4.422138 32.925073 10.073178
2005-07-14 08:46:57 51°10.003 2°40.166 18.6439 4.422349 32.927972 10.410272
2005-07-14 08:47:03 51°9.993 2°40.132 18.6481 4.422876 32.93465 9.97205
2005-07-14 08:47:07 51°9.986 2°40.107 18.6483 4.423931 32.943432 10.073178
2005-07-14 08:47:12 51°9.978 2°40.079 18.6509 4.424248 32.949499 10.241725
2005-07-14 08:47:17 51°9.971 2°40.054 18.6537 4.424669 32.953585 10.241725
2005-07-14 08:47:22 51°9.962 2°40.023 18.655 4.424669 32.953585 10.241725
2005-07-14 08:47:28 51°9.953 2°39.992 18.657 4.424564 32.952706 10.410272
2005-07-14 08:47:31 51°9.947 2°39.973 18.6616 4.424353 32.95095 10.106888
2005-07-14 08:47:38 51°9.937 2°39.936 18.6677 4.423931 32.945148 10.140597
2005-07-14 08:47:42 51°9.929 2°39.911 18.6716 4.423298 32.938163 10.747366
2005-07-14 08:47:48 51°9.92 2°39.88 18.6775 4.422349 32.928544 9.668665
2005-07-14 08:47:52 51°9.913 2°39.855 18.6823 4.422349 32.928544 9.668665
2005-07-14 08:47:57 51°9.906 2°39.829 18.6852 4.421505 32.919804 10.241725
2005-07-14 08:48:02 51°9.897 2°39.798 18.6877 4.420873 32.913393 10.477691
2005-07-14 08:48:07 51°9.889 2°39.77 18.6904 4.420451 32.906454 10.713657
2005-07-14 08:48:12 51°9.882 2°39.741 18.6918 4.418974 32.890168 10.443982
2005-07-14 08:48:17 51°9.873 2°39.713 18.6942 4.41813 32.879723 9.803503
2005-07-14 08:48:22 51°9.866 2°39.685 18.695 4.41813 32.879723 9.803503
2005-07-14 08:48:27 51°9.858 2°39.657 18.696 4.416232 32.859365 11.387845
2005-07-14 08:48:33 51°9.849 2°39.626 18.6977 4.415072 32.845725 10.578819
2005-07-14 08:48:38 51°9.841 2°39.597 18.6996 4.414333 32.836166 10.814785
2005-07-14 08:48:43 51°9.833 2°39.569 18.702 4.413068 32.823363 11.253007
2005-07-14 08:48:47 51°9.825 2°39.544 18.7042 4.413279 32.821134 10.578819
2005-07-14 08:48:51 51°9.819 2°39.521 18.7032 4.413279 32.821134 10.578819
2005-07-14 08:48:57 51°9.81 2°39.49 18.7054 4.412329 32.812672 11.387845
2005-07-14 08:49:02 51°9.801 2°39.459 18.7054 4.411697 32.805136 11.522683
2005-07-14 08:49:07 51°9.793 2°39.431 18.7046 4.41138 32.800799 12.095742
2005-07-14 08:49:12 51°9.786 2°39.402 18.705 4.410536 32.79208 11.724939
2005-07-14 08:49:17 51°9.778 2°39.377 18.7053 4.409904 32.785683 11.826067
2005-07-14 08:49:23 51°9.769 2°39.343 18.7048 4.409904 32.785683 11.826067
2005-07-14 08:49:27 51°9.762 2°39.318 18.7001 4.40906 32.777533 11.219298
2005-07-14 08:49:32 51°9.754 2°39.289 18.6963 4.408744 32.7732 12.095742
2005-07-14 08:49:37 51°9.746 2°39.264 18.693 4.4079 32.765619 12.668802
2005-07-14 08:49:43 51°9.737 2°39.23 18.6926 4.408005 32.766496 12.365418
2005-07-14 08:49:47 51°9.73 2°39.205 18.6895 4.407373 32.760669 12.500255
2005-07-14 08:49:52 51°9.721 2°39.177 18.6893 4.407373 32.760669 12.500255
2005-07-14 08:49:57 51°9.713 2°39.148 18.6854 4.406951 32.757163 12.668802
2005-07-14 08:50:03 51°9.705 2°39.117 18.685 4.407583 32.763558 13.309281
2005-07-14 08:50:07 51°9.698 2°39.091 18.6819 4.407794 32.76815 12.635093
2005-07-14 08:50:12 51°9.69 2°39.063 18.6798 4.408744 32.777176 12.871059
2005-07-14 08:50:17 51°9.683 2°39.037 18.6859 4.408955 32.78177 13.140734
2005-07-14 08:50:23 51°9.675 2°39.002 18.6837 4.408955 32.78177 13.140734
2005-07-14 08:50:27 51°9.67 2°38.978 18.6813 4.409587 32.789304 13.174443
2005-07-14 08:50:33 51°9.664 2°38.943 18.6769 4.410326 32.797148 12.972187
2005-07-14 08:50:37 51°9.659 2°38.919 18.6733 4.411275 32.806178 12.062033
2005-07-14 08:50:42 51°9.654 2°38.886 18.6678 4.411697 32.811392 13.410409
2005-07-14 08:50:48 51°9.647 2°38.853 18.6642 4.412646 32.819855 12.904768
2005-07-14 08:50:53 51°9.642 2°38.823 18.6596 4.412646 32.819855 12.904768
2005-07-14 08:50:57 51°9.637 2°38.799 18.6585 4.412435 32.818101 13.275571
2005-07-14 08:51:03 51°9.63 2°38.764 18.657 4.414122 32.831565 13.241862
2005-07-14 08:51:07 51°9.625 2°38.738 18.6585 4.414755 32.839106 12.76993
2005-07-14 08:51:13 51°9.618 2°38.705 18.6554 4.416337 32.855683 14.725076
2005-07-14 08:51:17 51°9.613 2°38.678 18.6587 4.418763 32.879285 13.680084
2005-07-14 08:51:22 51°9.607 2°38.649 18.6541 4.418763 32.879285 13.680084
2005-07-14 08:51:27 51°9.601 2°38.619 18.6497 4.42045 32.897891 13.949759
2005-07-14 08:51:32 51°9.596 2°38.592 18.6469 4.421927 32.913605 14.253144
2005-07-14 08:51:37 51°9.589 2°38.563 18.6432 4.423087 32.925547 15.264426
2005-07-14 08:51:43 51°9.582 2°38.527 18.6431 4.423298 32.927874 15.06217
2005-07-14 08:51:47 51°9.577 2°38.5 18.6383 4.423825 32.933407 14.286853
2005-07-14 08:51:52 51°9.572 2°38.473 18.6327 4.423825 32.933407 14.286853
2005-07-14 08:51:58 51°9.565 2°38.437 18.6303 4.42488 32.942759 14.387982
2005-07-14 08:52:02 51°9.56 2°38.411 18.6315 4.426357 32.956769 14.893623
2005-07-14 08:52:07 51°9.554 2°38.381 18.6275 4.427411 32.968412 15.63523
2005-07-14 08:52:12 51°9.548 2°38.351 18.6257 4.428571 32.980935 14.792494
2005-07-14 08:52:17 51°9.542 2°38.321 18.6288 4.428993 32.986167 15.63523
2005-07-14 08:52:23 51°9.536 2°38.288 18.6244 4.428993 32.986167 15.63523
2005-07-14 08:52:27 51°9.531 2°38.264 18.6199 4.429626 32.995447 15.837486
2005-07-14 08:52:32 51°9.525 2°38.232 18.6184 4.430259 33.004157 15.702648
2005-07-14 08:52:37 51°9.519 2°38.202 18.6187 4.430259 33.005877 15.298136
2005-07-14 08:52:42 51°9.513 2°38.172 18.6146 4.43047 33.009927 15.466683
2005-07-14 08:52:48 51°9.507 2°38.139 18.6135 4.430786 33.014284 16.140871
2005-07-14 08:52:52 51°9.502 2°38.115 18.6076 4.430786 33.014284 16.140871
2005-07-14 08:52:57 51°9.496 2°38.085 18.6057 4.431103 33.017494 15.871195
2005-07-14 08:53:02 51°9.49 2°38.052 18.6028 4.431947 33.02682 15.770067
2005-07-14 08:53:08 51°9.483 2°38.019 18.6038 4.433001 33.037906 15.567811
2005-07-14 08:53:12 51°9.479 2°37.995 18.6057 4.433951 33.046967 14.961042
2005-07-14 08:53:17 51°9.473 2°37.965 18.6046 4.435216 33.05924 15.298136
2005-07-14 08:53:22 51°9.466 2°37.932 18.6075 4.435216 33.05924 15.298136
2005-07-14 08:53:27 51°9.46 2°37.902 18.6038 4.436376 33.071785 15.500392
2005-07-14 08:53:33 51°9.453 2°37.87 18.6031 4.437642 33.085213 15.197007
2005-07-14 08:53:37 51°9.447 2°37.847 18.5984 4.439435 33.102466 15.668939
2005-07-14 08:53:43 51°9.437 2°37.813 18.5973 4.440173 33.11035 15.365554
2005-07-14 08:53:47 51°9.429 2°37.788 18.6007 4.441017 33.118539 16.848768
2005-07-14 08:53:52 51°9.421 2°37.763 18.6051 4.441017 33.118539 16.848768
2005-07-14 08:53:57 51°9.411 2°37.734 18.6095 4.442072 33.126185 17.017315
2005-07-14 08:54:02 51°9.402 2°37.71 18.618 4.443337 33.136166 15.938614
2005-07-14 08:54:07 51°9.39 2°37.681 18.6174 4.445341 33.155188 17.455537
2005-07-14 08:54:12 51°9.38 2°37.654 18.614 4.44724 33.173334 16.579093
2005-07-14 08:54:17 51°9.37 2°37.631 18.6114 4.448716 33.186809 17.792631
2005-07-14 08:54:23 51°9.358 2°37.601 18.609 4.448716 33.186809 17.792631
2005-07-14 08:54:27 51°9.348 2°37.576 18.605 4.449982 33.196794 16.680221
2005-07-14 08:54:32 51°9.338 2°37.552 18.6047 4.450931 33.201829 16.74764
2005-07-14 08:54:37 51°9.327 2°37.525 18.5988 4.453146 33.215694 17.185862
2005-07-14 08:54:42 51°9.317 2°37.501 18.5934 4.455255 33.230985 17.118443
2005-07-14 08:54:48 51°9.305 2°37.471 18.583 4.45747 33.249468 16.477965
2005-07-14 08:54:52 51°9.295 2°37.447 18.5711 4.45747 33.249468 16.477965
2005-07-14 08:54:56 51°9.287 2°37.426 18.5623 4.459368 33.265889 16.612802
2005-07-14 08:55:02 51°9.274 2°37.396 18.5643 4.461372 33.285507 16.275708
2005-07-14 08:55:08 51°9.264 2°37.37 18.5494 4.462321 33.294588 16.241999
2005-07-14 08:55:12 51°9.255 2°37.349 18.5478 4.463692 33.309508 16.949896
2005-07-14 08:55:17 51°9.248 2°37.33 18.5407 4.465064 33.32617 17.017315
2005-07-14 08:55:22 51°9.239 2°37.311 18.528 4.465064 33.32617 17.017315
2005-07-14 08:55:28 51°9.229 2°37.288 18.529 4.465486 33.33491 16.74764
2005-07-14 08:55:32 51°9.222 2°37.272 18.5251 4.466751 33.353603 15.736358
2005-07-14 08:55:37 51°9.215 2°37.257 18.5284 4.467068 33.364373 15.803777
2005-07-14 08:55:42 51°9.208 2°37.241 18.5216 4.467806 33.377513 15.331845
2005-07-14 08:55:48 51°9.2 2°37.224 18.5237 4.468334 33.385408 15.06217
2005-07-14 08:55:52 51°9.194 2°37.211 18.521 4.468334 33.385408 15.06217
2005-07-14 08:55:58 51°9.187 2°37.197 18.5173 4.468861 33.398539 15.331845
2005-07-14 08:56:02 51°9.182 2°37.189 18.5159 4.469389 33.409349 15.129589
2005-07-14 08:56:06 51°9.177 2°37.181 18.5141 4.470021 33.417553 15.938614
2005-07-14 08:56:12 51°9.17 2°37.17 18.5135 4.470549 33.424293 15.938614
2005-07-14 08:56:17 51°9.165 2°37.162 18.522 4.470971 33.430152 15.534101
2005-07-14 08:56:22 51°9.162 2°37.156 18.5281 4.470971 33.430152 15.534101
2005-07-14 08:56:27 51°9.159 2°37.149 18.5328 4.471815 33.438377 15.298136
2005-07-14 08:56:32 51°9.156 2°37.144 18.5363 4.472236 33.444238 15.298136
2005-07-14 08:56:37 51°9.154 2°37.14 18.5403 4.472658 33.4501 14.961042
2005-07-14 08:56:42 51°9.153 2°37.137 18.5422 4.47308 33.454797 14.792494
2005-07-14 08:56:48 51°9.153 2°37.134 18.5436 4.47403 33.463325 15.60152
2005-07-14 08:56:52 51°9.153 2°37.134 18.5426 4.47403 33.463325 15.60152
2005-07-14 08:56:57 51°9.154 2°37.134 18.5378 4.47424 33.462757 15.534101
2005-07-14 08:57:02 51°9.154 2°37.134 18.5361 4.474768 33.463672 14.893623
2005-07-14 08:57:08 51°9.155 2°37.135 18.528 4.475717 33.466951 15.567811
2005-07-14 08:57:12 51°9.155 2°37.135 18.5181 4.47635 33.46933 14.725076
2005-07-14 08:57:18 51°9.155 2°37.135 18.5097 4.477299 33.473774 14.758785
2005-07-14 08:57:22 51°9.155 2°37.135 18.5075 4.477299 33.473774 14.758785
2005-07-14 08:57:28 51°9.156 2°37.135 18.5059 4.477404 33.472908 14.994751
2005-07-14 08:57:33 51°9.156 2°37.135 18.5015 4.477404 33.474074 14.961042
2005-07-14 08:57:38 51°9.156 2°37.134 18.4937 4.477721 33.477887 15.264426
2005-07-14 08:57:42 51°9.156 2°37.134 18.4929 4.478143 33.484916 15.06217
2005-07-14 08:57:48 51°9.156 2°37.134 18.4926 4.47867 33.495748 15.06217
2005-07-14 08:57:53 51°9.156 2°37.133 18.4903 4.47867 33.495748 15.06217
2005-07-14 08:57:58 51°9.156 2°37.133 18.4884 4.478776 33.502469 14.927332
2005-07-14 08:58:02 51°9.156 2°37.133 18.4904 4.478881 33.508608 15.02846
2005-07-14 08:58:08 51°9.157 2°37.132 18.4916 4.479198 33.514178 14.4554
2005-07-14 08:58:12 51°9.157 2°37.132 18.4929 4.479409 33.519451 15.432973
2005-07-14 08:58:18 51°9.157 2°37.131 18.4951 4.47962 33.526478 14.48911
2005-07-14 08:58:22 51°9.157 2°37.131 18.4966 4.47962 33.526478 14.48911
2005-07-14 08:58:28 51°9.158 2°37.13 18.4946 4.480042 33.531766 14.387982
2005-07-14 08:58:32 51°9.158 2°37.13 18.493 4.479831 33.532923 15.298136
2005-07-14 08:58:37 51°9.158 2°37.129 18.4922 4.480042 33.535275 14.691366
2005-07-14 08:58:42 51°9.158 2°37.129 18.4905 4.480042 33.535275 13.814922
2005-07-14 08:58:47 51°9.159 2°37.128 18.4858 4.480042 33.534106 15.63523
2005-07-14 08:58:52 51°9.159 2°37.127 18.4838 4.480042 33.534106 15.63523
2005-07-14 08:58:58 51°9.159 2°37.127 18.4827 4.479725 33.530285 14.320563
2005-07-14 08:59:02 51°9.159 2°37.126 18.4841 4.480042 33.531766 15.534101
2005-07-14 08:59:08 51°9.159 2°37.125 18.4805 4.480147 33.533819 14.758785
2005-07-14 08:59:13 51°9.16 2°37.124 18.4802 4.480358 33.535586 14.961042
2005-07-14 08:59:18 51°9.16 2°37.123 18.4772 4.480147 33.535574 14.657657
2005-07-14 08:59:22 51°9.159 2°37.123 18.4807 4.480147 33.535574 14.657657
2005-07-14 08:59:28 51°9.16 2°37.122 18.4808 4.480358 33.539681 14.792494
2005-07-14 08:59:32 51°9.16 2°37.121 18.4802 4.479831 33.537018 15.399264
2005-07-14 08:59:38 51°9.16 2°37.12 18.4832 4.47962 33.535836 15.365554
2005-07-14 08:59:42 51°9.16 2°37.119 18.4775 4.461901 33.389182 14.893623
2005-07-14 08:59:48 51°9.161 2°37.118 18.4788 4.460319 33.377683 15.904905
2005-07-14 08:59:52 51°9.161 2°37.118 18.4796 4.460319 33.377683 15.904905
2005-07-14 08:59:58 51°9.161 2°37.117 18.4777 4.477405 33.521959 15.567811
2005-07-14 09:00:02 51°9.162 2°37.116 18.4735 4.479725 33.54023 15.702648
2005-07-14 09:00:08 51°9.162 2°37.115 18.4734 4.47962 33.539347 15.770067
2005-07-14 09:00:13 51°9.162 2°37.114 18.4713 4.479514 33.538463 16.410546
2005-07-14 09:00:18 51°9.162 2°37.113 18.4729 4.47519 33.502817 16.107161
2005-07-14 09:00:22 51°9.163 2°37.112 18.4703 4.47519 33.502817 16.107161
2005-07-14 09:00:28 51°9.163 2°37.111 18.4724 4.47519 33.502817 16.815059
2005-07-14 09:00:32 51°9.163 2°37.11 18.4705 4.475401 33.504584 17.219571
2005-07-14 09:00:38 51°9.163 2°37.109 18.4718 4.47635 33.514876 16.612802
2005-07-14 09:00:42 51°9.163 2°37.108 18.4681 4.479093 33.539609 17.017315
2005-07-14 09:00:48 51°9.163 2°37.106 18.469 4.479198 33.541664 17.994888
2005-07-14 09:00:52 51°9.163 2°37.105 18.469 4.479198 33.541664 17.994888
2005-07-14 09:00:58 51°9.163 2°37.104 18.4702 4.47962 33.545785 17.893759
2005-07-14 09:01:02 51°9.164 2°37.103 18.4671 4.479093 33.542536 17.961178
2005-07-14 09:01:08 51°9.164 2°37.101 18.4669 4.479093 33.542536 18.331982
2005-07-14 09:01:12 51°9.164 2°37.1 18.4653 4.479304 33.544304 18.3994
2005-07-14 09:01:17 51°9.165 2°37.099 18.4664 4.479093 33.543707 18.062306
2005-07-14 09:01:22 51°9.165 2°37.098 18.4652 4.479093 33.543707 18.062306
2005-07-14 09:01:28 51°9.165 2°37.097 18.466 4.478987 33.543994 18.096016
2005-07-14 09:01:32 51°9.165 2°37.096 18.4666 4.478776 33.542226 18.163435
2005-07-14 09:01:38 51°9.166 2°37.094 18.4643 4.479093 33.544878 17.86005
2005-07-14 09:01:42 51°9.166 2°37.093 18.4634 4.478987 33.54575 18.466819
2005-07-14 09:01:47 51°9.166 2°37.092 18.4629 4.479093 33.547805 17.421828
2005-07-14 09:01:52 51°9.166 2°37.09 18.4639 4.479093 33.547805 17.421828
2005-07-14 09:01:58 51°9.167 2°37.089 18.4639 4.478987 33.546921 17.792631
2005-07-14 09:02:01 51°9.167 2°37.088 18.4637 4.478882 33.546037 18.298272
2005-07-14 09:02:08 51°9.167 2°37.086 18.461 4.478882 33.546037 18.163435
2005-07-14 09:02:12 51°9.167 2°37.085 18.4597 4.478776 33.545739 18.129725
2005-07-14 09:02:17 51°9.168 2°37.084 18.4584 4.478882 33.547794 18.062306
2005-07-14 09:02:21 51°9.168 2°37.083 18.4606 4.478882 33.547794 18.062306
2005-07-14 09:02:28 51°9.168 2°37.081 18.4578 4.479093 33.549562 18.230853
2005-07-14 09:02:32 51°9.168 2°37.08 18.4586 4.478987 33.548678 17.084734
2005-07-14 09:02:38 51°9.168 2°37.078 18.4567 4.479198 33.551032 18.534238
2005-07-14 09:02:42 51°9.169 2°37.077 18.4565 4.478987 33.550435 18.601657
2005-07-14 09:02:47 51°9.169 2°37.076 18.4561 4.478987 33.550435 18.770204
2005-07-14 09:02:52 51°9.169 2°37.074 18.4571 4.478987 33.550435 18.770204
2005-07-14 09:02:57 51°9.169 2°37.073 18.4587 4.478987 33.551607 18.736494
2005-07-14 09:03:02 51°9.17 2°37.071 18.4612 4.478987 33.552778 18.871332
2005-07-14 09:03:08 51°9.17 2°37.07 18.4595 4.478882 33.551308 19.174717
2005-07-14 09:03:12 51°9.17 2°37.069 18.4591 4.478776 33.55101 19.444392
2005-07-14 09:03:18 51°9.17 2°37.067 18.4556 4.479409 33.556315 19.275845
2005-07-14 09:03:22 51°9.17 2°37.066 18.4557 4.479409 33.556315 19.275845
2005-07-14 09:03:28 51°9.171 2°37.064 18.4569 4.478987 33.553364 19.781486
2005-07-14 09:03:32 51°9.171 2°37.063 18.4542 4.478987 33.553364 19.714067
2005-07-14 09:03:38 51°9.171 2°37.061 18.4545 4.479093 33.552491 20.287127
2005-07-14 09:03:41 51°9.171 2°37.06 18.4567 4.478671 33.548954 19.107298
2005-07-14 09:03:48 51°9.171 2°37.058 18.4532 4.478987 33.552192 18.97246
2005-07-14 09:03:53 51°9.171 2°37.057 18.452 4.478987 33.552192 18.97246
2005-07-14 09:03:58 51°9.171 2°37.055 18.4518 4.479304 33.555431 20.152289
2005-07-14 09:04:02 51°9.171 2°37.054 18.4534 4.479198 33.555718 19.039879
2005-07-14 09:04:08 51°9.171 2°37.052 18.4537 4.479304 33.556603 20.017452
2005-07-14 09:04:13 51°9.171 2°37.05 18.453 4.479304 33.557775 20.556802
2005-07-14 09:04:18 51°9.171 2°37.049 18.4491 4.479304 33.557775 19.242136
2005-07-14 09:04:22 51°9.171 2°37.048 18.4483 4.479304 33.557775 19.242136
2005-07-14 09:04:28 51°9.171 2°37.046 18.4469 4.478987 33.555708 20.185999
2005-07-14 09:04:32 51°9.172 2°37.044 18.4496 4.479409 33.560417 19.208426
2005-07-14 09:04:38 51°9.172 2°37.043 18.449 4.479304 33.559532 21.129862
2005-07-14 09:04:42 51°9.172 2°37.041 18.4486 4.478988 33.556879 19.57923
2005-07-14 09:04:47 51°9.172 2°37.04 18.446 4.479409 33.560417 19.983742
2005-07-14 09:04:52 51°9.172 2°37.038 18.449 4.479409 33.560417 19.983742
2005-07-14 09:04:58 51°9.172 2°37.036 18.4471 4.478882 33.558925 20.759059
2005-07-14 09:05:02 51°9.172 2°37.035 18.4471 4.478671 33.55657 19.815195
2005-07-14 09:05:08 51°9.172 2°37.033 18.4472 4.478882 33.558925 20.253418
2005-07-14 09:05:12 51°9.172 2°37.032 18.4499 4.479199 33.562164 19.983742
2005-07-14 09:05:18 51°9.172 2°37.03 18.447 4.478988 33.560982 20.421965
2005-07-14 09:05:23 51°9.172 2°37.028 18.4487 4.478988 33.560982 20.421965
2005-07-14 09:05:27 51°9.172 2°37.027 18.4471 4.479093 33.56128 20.860187
2005-07-14 09:05:32 51°9.172 2°37.025 18.4467 4.478671 33.558328 21.096153
2005-07-14 09:05:37 51°9.172 2°37.023 18.4447 4.478671 33.558328 20.017452
2005-07-14 09:05:42 51°9.172 2°37.022 18.4458 4.478988 33.560982 21.062443
2005-07-14 09:05:48 51°9.172 2°37.02 18.4468 4.478882 33.560683 20.725349
2005-07-14 09:05:52 51°9.172 2°37.018 18.4482 4.478882 33.560683 20.725349
2005-07-14 09:05:57 51°9.172 2°37.016 18.446 4.478671 33.557742 21.062443
2005-07-14 09:06:02 51°9.172 2°37.015 18.4463 4.478882 33.560097 20.792768
2005-07-14 09:06:07 51°9.172 2°37.013 18.4457 4.478988 33.561568 20.893896
2005-07-14 09:06:12 51°9.172 2°37.011 18.4456 4.478882 33.561269 20.556802
2005-07-14 09:06:18 51°9.172 2°37.009 18.445 4.478355 33.556847 20.995024
2005-07-14 09:06:22 51°9.172 2°37.008 18.4456 4.478355 33.556847 20.995024
2005-07-14 09:06:28 51°9.172 2°37.006 18.4467 4.478671 33.558914 20.421965
2005-07-14 09:06:32 51°9.172 2°37.004 18.4459 4.478566 33.558616 20.590512
2005-07-14 09:06:38 51°9.172 2°37.002 18.4459 4.478566 33.558616 20.792768
2005-07-14 09:06:42 51°9.172 2°37 18.4447 4.478355 33.556847 20.927606
2005-07-14 09:06:48 51°9.172 2°36.999 18.4439 4.478566 33.558616 20.354546
2005-07-14 09:06:52 51°9.172 2°36.997 18.4448 4.478566 33.558616 20.354546
2005-07-14 09:06:58 51°9.172 2°36.995 18.4451 4.47287 33.512031 20.759059
2005-07-14 09:07:02 51°9.172 2°36.993 18.4441 4.478566 33.559788 20.826477
2005-07-14 09:07:08 51°9.172 2°36.991 18.4461 4.478144 33.555664 21.028734
2005-07-14 09:07:13 51°9.172 2°36.99 18.4447 4.478144 33.555664 19.781486
2005-07-14 09:07:18 51°9.172 2°36.988 18.4453 4.478038 33.555366 20.893896
2005-07-14 09:07:23 51°9.172 2°36.986 18.4438 4.478038 33.555366 20.893896
2005-07-14 09:07:27 51°9.172 2°36.984 18.4442 4.478144 33.55625 21.669212
2005-07-14 09:07:32 51°9.173 2°36.983 18.4452 4.478144 33.556836 20.893896
2005-07-14 09:07:38 51°9.173 2°36.981 18.4447 4.478038 33.555952 20.65793
2005-07-14 09:07:42 51°9.173 2°36.979 18.4445 4.47846 33.558318 21.837759
2005-07-14 09:07:46 51°9.173 2°36.978 18.4454 4.478249 33.557135 21.096153
2005-07-14 09:07:52 51°9.173 2°36.975 18.4469 4.478249 33.557135 21.096153
2005-07-14 09:07:58 51°9.173 2°36.973 18.4447 4.478038 33.555366 21.871469
2005-07-14 09:08:01 51°9.173 2°36.972 18.4456 4.478249 33.557135 20.792768
2005-07-14 09:08:08 51°9.173 2°36.97 18.4455 4.478249 33.557135 20.455674
2005-07-14 09:08:12 51°9.173 2°36.968 18.4433 4.478144 33.557423 21.972597
2005-07-14 09:08:18 51°9.172 2°36.966 18.4439 4.478144 33.556836 21.028734
2005-07-14 09:08:22 51°9.172 2°36.964 18.4433 4.478144 33.556836 21.028734
2005-07-14 09:08:28 51°9.172 2°36.962 18.4434 4.478144 33.555664 20.624221
2005-07-14 09:08:33 51°9.172 2°36.96 18.4455 4.478355 33.557433 20.556802
2005-07-14 09:08:37 51°9.172 2°36.959 18.4458 4.478249 33.557135 20.65793
2005-07-14 09:08:41 51°9.172 2°36.957 18.4456 4.478249 33.557135 20.759059
2005-07-14 09:08:48 51°9.172 2°36.955 18.447 4.478355 33.558605 21.568084
2005-07-14 09:08:52 51°9.172 2°36.953 18.4484 4.478355 33.558605 21.568084
2005-07-14 09:08:58 51°9.172 2°36.951 18.4468 4.478144 33.556836 20.388255
2005-07-14 09:09:02 51°9.172 2°36.949 18.4463 4.478144 33.557423 22.242272
2005-07-14 09:09:08 51°9.172 2°36.947 18.4442 4.478249 33.558307 21.298409
2005-07-14 09:09:12 51°9.172 2°36.945 18.4456 4.478038 33.555952 23.017589
2005-07-14 09:09:18 51°9.172 2°36.943 18.4466 4.478144 33.55625 21.332118
2005-07-14 09:09:22 51°9.172 2°36.942 18.4445 4.478144 33.55625 21.332118
2005-07-14 09:09:27 51°9.172 2°36.939 18.4455 4.478038 33.554194 21.938888
2005-07-14 09:09:32 51°9.172 2°36.938 18.4458 4.478038 33.55478 22.107435
2005-07-14 09:09:37 51°9.171 2°36.936 18.4475 4.478144 33.555664 21.669212
2005-07-14 09:09:42 51°9.171 2°36.934 18.448 4.478038 33.55478 22.309691
2005-07-14 09:09:48 51°9.171 2°36.932 18.4453 4.477933 33.553895 21.871469
2005-07-14 09:09:52 51°9.171 2°36.93 18.4482 4.477933 33.553895 21.871469
2005-07-14 09:09:58 51°9.171 2°36.928 18.4514 4.477933 33.553309 20.826477
2005-07-14 09:10:01 51°9.171 2°36.926 18.4492 4.47846 33.558318 22.040016
2005-07-14 09:10:08 51°9.171 2°36.924 18.4527 4.478355 33.557433 21.332118
2005-07-14 09:10:12 51°9.171 2°36.922 18.4488 4.478355 33.556261 21.770341
2005-07-14 09:10:18 51°9.171 2°36.92 18.4491 4.478038 33.552436 21.635503
2005-07-14 09:10:21 51°9.171 2°36.919 18.4478 4.478038 33.552436 21.635503
2005-07-14 09:10:28 51°9.17 2°36.916 18.4475 4.478144 33.55332 22.714204
2005-07-14 09:10:32 51°9.17 2°36.915 18.4507 4.478355 33.554503 22.545657
2005-07-14 09:10:38 51°9.17 2°36.912 18.4514 4.478355 33.552745 22.444529
2005-07-14 09:10:42 51°9.17 2°36.911 18.4539 4.478355 33.550988 21.972597
2005-07-14 09:10:48 51°9.17 2°36.909 18.4527 4.47846 33.55363 22.478238
2005-07-14 09:10:52 51°9.17 2°36.907 18.4521 4.47846 33.55363 22.478238
2005-07-14 09:10:58 51°9.169 2°36.905 18.4506 4.478249 33.553619 21.770341
2005-07-14 09:11:02 51°9.169 2°36.903 18.4505 4.478355 33.554503 22.849042
2005-07-14 09:11:08 51°9.169 2°36.901 18.4507 4.478566 33.554514 21.837759
2005-07-14 09:11:13 51°9.169 2°36.899 18.4511 4.478249 33.551275 22.781623
2005-07-14 09:11:18 51°9.169 2°36.897 18.4501 4.47846 33.553044 21.871469
2005-07-14 09:11:21 51°9.169 2°36.896 18.448 4.47846 33.553044 21.871469
2005-07-14 09:11:28 51°9.169 2°36.893 18.4481 4.478038 33.548335 21.80405
2005-07-14 09:11:32 51°9.169 2°36.891 18.4492 4.478355 33.550988 23.624358
2005-07-14 09:11:38 51°9.168 2°36.889 18.4503 4.478566 33.553928 22.714204